<- Previous Day | Today | Next Day ->

All Data for 01 December 2020

 

Time A - D Temp A - D Dew Point A - D Humidity A - D Pressure A - D Wind A - D Wind Dir Gust A - D Rain Rate A - D Rain Total
00:00 10.6 8.5 87 1026.1 4.5 W 9.8 0.0 0.0
00:01 10.6 8.5 87 1025.9 11.4 N 11.4 0.0 0.0
00:02 10.6 8.5 87 1026.1 7.6 N 11.4 0.0 0.0
00:03 10.6 8.5 87 1026.1 6.9 N 11.4 0.0 0.0
00:04 10.6 8.5 87 1026.2 6.0 NW 11.4 0.0 0.0
00:05 10.6 8.5 87 1026.2 8.3 N 11.4 0.0 0.0
00:06 10.6 8.5 87 1026.0 8.3 N 11.4 0.0 0.0
00:07 10.6 8.5 87 1026.1 9.8 SW 11.4 0.0 0.0
00:08 10.6 8.5 87 1026.1 9.2 NW 11.4 0.0 0.0
00:09 10.6 8.5 87 1026.2 6.9 N 11.4 0.0 0.0
00:11 10.6 8.5 87 1026.0 14.5 N 14.5 0.8 0.1
00:12 10.6 8.5 87 1026.0 10.7 WNW 14.5 0.8 0.1
00:13 10.6 8.5 87 1026.0 10.7 WNW 14.5 0.8 0.1
00:14 10.6 8.5 87 1025.8 10.7 NW 14.5 0.8 0.1
00:15 10.6 8.5 87 1026.1 10.7 NW 14.5 0.8 0.1
00:16 10.6 8.5 87 1026.1 7.6 NW 14.5 0.0 0.1
00:17 10.6 8.5 87 1025.8 7.6 NW 14.5 0.0 0.1
00:18 10.6 8.5 87 1026.1 7.6 W 14.5 0.0 0.1
00:19 10.6 8.5 87 1026.0 7.6 W 14.5 0.0 0.1
00:20 10.6 8.5 87 1025.9 7.6 W 14.5 0.0 0.1
00:21 10.6 8.5 87 1026.1 8.3 S 14.5 0.0 0.1
00:22 10.6 8.5 87 1026.0 9.2 E 10.7 0.0 0.1
00:23 10.6 8.5 87 1026.2 9.2 E 10.7 0.0 0.1
00:26 10.6 8.5 87 1026.2 9.8 NW 9.8 0.0 0.1
00:27 10.6 8.5 87 1026.2 9.8 NW 9.8 0.0 0.1
00:28 10.6 8.5 87 1026.3 6.0 N 9.8 0.0 0.1
00:29 10.6 8.5 87 1026.0 7.6 NE 9.8 0.0 0.1
00:30 10.6 8.5 87 1026.2 5.4 NNW 9.8 0.0 0.1
00:31 10.6 8.5 87 1026.0 5.4 NW 9.8 0.0 0.1
00:32 10.6 8.5 87 1026.2 6.0 NW 9.8 0.0 0.1
00:33 10.6 8.5 87 1026.0 6.0 NW 9.8 0.0 0.1
00:34 10.6 8.5 87 1026.1 6.9 NW 9.8 0.0 0.1
00:35 10.6 8.5 87 1026.1 6.0 SW 9.8 0.0 0.1
00:36 10.6 8.5 87 1026.1 6.0 W 9.8 0.0 0.1
00:37 10.6 8.5 87 1026.1 7.6 W 7.6 0.0 0.1
00:39 10.6 8.5 87 1026.3 9.8 N 9.8 0.0 0.1
00:40 10.6 8.5 87 1026.1 8.3 NW 9.8 0.0 0.1
00:41 10.6 8.5 87 1026.4 7.6 NW 9.8 0.0 0.1
00:42 10.6 8.5 87 1026.3 7.6 NW 9.8 0.0 0.1
00:43 10.6 8.5 87 1026.4 5.4 W 9.8 0.0 0.1
00:44 10.6 8.5 87 1026.0 9.8 NW 9.8 0.0 0.1
00:45 10.6 8.5 87 1026.2 13.6 N 13.6 0.0 0.1
00:46 10.6 8.5 87 1026.2 10.7 NNE 13.6 0.0 0.1
00:47 10.6 8.5 87 1026.2 6.0 W 13.6 0.0 0.1
00:48 10.6 8.5 87 1026.0 6.0 N 13.6 0.0 0.1
00:49 10.6 8.5 87 1026.4 9.2 N 13.6 0.0 0.1
00:50 10.6 8.5 87 1026.2 9.2 E 13.6 0.0 0.1
00:51 10.6 8.5 87 1026.2 12.1 N 13.6 0.0 0.1
00:52 10.6 8.5 87 1026.2 12.1 N 13.6 0.0 0.1
00:54 10.5 8.4 87 1026.1 10.7 N 13.6 0.0 0.1
00:55 10.5 8.4 87 1026.1 10.7 N 13.6 0.0 0.1
00:56 10.5 8.4 87 1026.1 8.3 W 12.1 0.0 0.1
00:57 10.5 8.4 87 1026.0 11.4 NW 12.1 0.0 0.1
00:58 10.5 8.4 87 1026.0 9.8 NE 12.1 0.0 0.1
00:59 10.5 8.4 87 1026.1 7.6 N 12.1 0.0 0.1
01:00 10.5 8.4 87 1025.9 6.0 N 12.1 0.0 0.1
01:01 10.5 8.4 87 1025.9 6.0 N 12.1 0.0 0.1
01:02 10.5 8.4 87 1026.0 6.0 N 12.1 0.0 0.1
01:03 10.5 8.4 87 1026.0 6.0 N 11.4 0.0 0.1
01:04 10.5 8.4 87 1026.0 6.0 N 11.4 0.0 0.1
01:05 10.5 8.4 87 1025.9 6.0 N 11.4 0.0 0.1
01:06 10.4 8.3 87 1025.9 3.8 W 11.4 0.0 0.1
01:08 10.4 8.3 87 1026.1 6.9 W 7.6 0.0 0.1
01:09 10.4 8.3 87 1026.0 6.0 E 6.9 0.0 0.1
01:10 10.4 8.3 87 1026.0 6.0 N 6.9 0.0 0.1
01:11 10.4 8.3 87 1026.0 6.0 NW 6.9 0.0 0.1
01:12 10.4 8.3 87 1025.9 9.2 NW 9.2 0.0 0.1
01:13 10.4 8.3 87 1025.9 6.0 N 9.2 0.0 0.1
01:14 10.4 8.3 87 1026.1 8.3 NW 9.2 0.0 0.1
01:15 10.4 8.3 87 1025.8 8.3 NW 9.2 0.0 0.1
01:16 10.3 8.2 87 1025.8 6.9 NW 9.2 0.0 0.1
01:17 10.3 8.2 87 1026.1 7.6 NW 9.2 0.0 0.1
01:18 10.3 8.2 87 1026.0 5.4 NW 9.2 0.0 0.1
01:19 10.3 8.2 87 1026.1 5.4 N 9.2 0.0 0.1
01:20 10.3 8.2 87 1026.0 5.4 NW 9.2 0.0 0.1
01:22 10.3 8.2 87 1025.7 6.9 W 9.2 0.0 0.1
01:23 10.3 8.1 86 1025.6 6.9 NE 8.3 0.0 0.1
01:24 10.3 8.1 86 1025.7 5.4 NW 8.3 0.0 0.1
01:25 10.3 8.1 86 1025.9 3.8 NW 7.6 0.0 0.1
01:26 10.3 8.1 86 1025.8 5.4 E 7.6 0.0 0.1
01:27 10.3 8.1 86 1025.6 6.0 W 7.6 0.0 0.1
01:28 10.3 8.1 86 1025.8 9.2 W 9.2 0.0 0.1
01:29 10.3 8.1 86 1025.5 6.9 NW 9.2 0.0 0.1
01:30 10.3 8.1 86 1025.4 6.9 N 9.2 0.0 0.1
01:31 10.3 8.1 86 1025.6 9.2 NW 9.2 0.0 0.1
01:32 10.3 8.1 86 1025.6 9.2 W 9.2 0.0 0.1
01:33 10.3 8.1 86 1025.6 8.3 NW 9.2 0.0 0.1
01:34 10.4 8.3 87 1025.9 6.9 N 9.2 0.0 0.1
01:36 10.4 8.3 87 1025.8 9.2 NW 9.2 0.0 0.1
01:37 10.4 8.3 87 1026.0 9.2 NW 9.2 0.0 0.1
01:38 10.4 8.3 87 1025.6 9.2 NW 9.2 0.0 0.1
01:39 10.4 8.3 87 1025.7 9.2 NW 9.2 0.0 0.1
01:40 10.4 8.3 87 1025.8 5.4 NW 9.2 0.0 0.1
01:41 10.4 8.3 87 1025.7 5.4 NW 9.2 0.0 0.1
01:42 10.4 8.3 87 1025.9 6.0 NW 9.2 0.0 0.1
01:43 10.4 8.3 87 1025.8 6.0 NW 9.2 0.0 0.1
01:44 10.4 8.3 87 1025.9 9.2 NW 9.2 0.0 0.1
01:45 10.5 8.4 87 1025.8 3.8 W 9.2 0.0 0.1
01:46 10.5 8.4 87 1025.9 5.4 W 9.2 0.0 0.1
01:47 10.5 8.4 87 1025.8 5.4 W 9.2 0.0 0.1
01:48 10.5 8.4 87 1025.9 8.3 N 9.2 0.0 0.1
01:50 10.5 8.4 87 1026.0 3.8 NW 9.2 0.0 0.1
01:51 10.5 8.4 87 1025.8 3.8 NW 9.2 0.0 0.1
01:52 10.5 8.4 87 1025.9 7.6 NW 9.2 0.0 0.1
01:53 10.5 8.4 87 1025.8 7.6 NW 9.2 0.0 0.1
01:54 10.5 8.4 87 1025.8 7.6 NW 9.2 0.0 0.1
01:55 10.6 8.5 87 1025.5 11.4 NW 11.4 0.0 0.1
01:56 10.6 8.5 87 1026.0 8.3 W 11.4 0.0 0.1
01:57 10.6 8.5 87 1025.9 8.3 S 11.4 0.0 0.1
01:58 10.6 8.5 87 1025.9 10.7 W 11.4 0.0 0.1
01:59 10.6 8.5 87 1025.8 6.0 NE 11.4 0.0 0.1
02:00 10.6 8.5 87 1025.7 8.3 NE 11.4 0.0 0.1
02:01 10.6 8.5 87 1025.8 4.5 W 11.4 0.0 0.1
02:02 10.6 8.5 87 1026.1 6.0 NW 11.4 0.0 0.1
02:04 10.6 8.5 87 1025.8 9.2 NE 11.4 0.0 0.1
02:05 10.6 8.5 87 1025.9 9.2 NE 11.4 0.0 0.1
02:06 10.6 8.5 87 1026.1 5.4 W 10.7 0.0 0.1
02:07 10.6 8.5 87 1026.1 6.9 NE 10.7 0.0 0.1
02:08 10.6 8.5 87 1026.0 9.2 E 10.7 0.0 0.1
02:09 10.6 8.5 87 1026.1 8.3 NW 9.2 0.0 0.1
02:10 10.6 8.5 87 1025.9 9.8 N 9.8 0.0 0.1
02:11 10.6 8.5 87 1025.8 9.8 N 9.8 0.0 0.1
02:12 10.6 8.5 87 1026.0 6.9 W 9.8 0.0 0.1
02:13 10.6 8.5 87 1025.8 8.3 NE 9.8 0.0 0.1
02:14 10.6 8.5 87 1026.0 9.8 NW 9.8 0.0 0.1
02:15 10.6 8.5 87 1025.8 9.8 NW 9.8 0.8 0.1
02:16 10.6 8.5 87 1025.9 9.8 NW 9.8 0.8 0.1
02:18 10.6 8.5 87 1026.1 13.0 N 13.0 0.8 0.1
02:19 10.6 8.5 87 1026.2 13.0 NW 13.0 0.8 0.1
02:20 10.6 8.5 87 1026.0 13.0 NW 13.0 0.0 0.1
02:21 10.6 8.5 87 1026.0 13.0 NW 13.0 0.0 0.1
02:22 10.6 8.5 87 1026.0 9.2 NW 13.0 0.0 0.1
02:23 10.6 8.5 87 1026.0 9.2 NW 13.0 0.0 0.1
02:24 10.6 8.5 87 1025.8 11.4 W 13.0 0.0 0.1
02:25 10.6 8.5 87 1026.1 11.4 W 13.0 0.0 0.1
02:26 10.6 8.5 87 1026.0 13.0 W 13.0 0.0 0.1
02:27 10.6 8.5 87 1025.8 13.0 SW 13.0 0.0 0.1
02:28 10.6 8.5 87 1026.0 9.2 NE 13.0 0.0 0.1
02:29 10.6 8.5 87 1025.8 9.2 N 13.0 0.0 0.1
02:30 10.6 8.5 87 1025.9 9.2 N 13.0 0.0 0.1
02:32 10.6 8.5 87 1026.1 9.2 N 13.0 0.0 0.1
02:33 10.6 8.5 87 1026.0 9.8 N 13.0 0.0 0.1
02:34 10.6 8.5 87 1026.1 9.8 N 13.0 0.0 0.1
02:35 10.6 8.5 87 1026.0 6.0 SW 13.0 0.0 0.1
02:36 10.6 8.5 87 1026.1 6.0 N 13.0 0.0 0.1
02:37 10.6 8.5 87 1026.0 6.0 N 13.0 0.0 0.1
02:38 10.6 8.5 87 1026.0 6.0 N 9.8 0.0 0.1
02:39 10.6 8.5 87 1026.1 6.0 N 9.8 0.0 0.1
02:40 10.6 8.5 87 1026.2 6.9 E 9.8 0.0 0.1
02:41 10.6 8.5 87 1026.1 6.9 E 9.8 0.0 0.1
02:42 10.6 8.5 87 1026.2 6.9 E 9.8 0.0 0.1
02:43 10.6 8.5 87 1026.0 6.9 E 9.8 0.0 0.1
02:44 10.6 8.5 87 1026.1 6.9 E 7.6 0.0 0.1
02:46 10.5 8.4 87 1026.3 7.6 N 7.6 0.0 0.1
02:47 10.5 8.4 87 1026.1 7.6 N 7.6 0.0 0.1
02:48 10.5 8.4 87 1026.2 7.6 N 7.6 0.0 0.1
02:49 10.5 8.4 87 1026.1 7.6 N 7.6 0.0 0.1
02:50 10.5 8.4 87 1025.9 7.6 N 7.6 0.0 0.1
02:51 10.4 8.2 86 1026.1 9.2 NE 9.2 0.0 0.1
02:52 10.4 8.2 86 1026.0 6.0 N 9.2 0.0 0.1
02:53 10.4 8.2 86 1026.3 6.0 E 9.2 0.0 0.1
02:54 10.3 8.1 86 1026.1 3.1 N 9.2 0.0 0.1
02:55 10.3 8.1 86 1026.2 4.5 SW 9.2 0.0 0.1
02:56 10.3 8.1 86 1026.2 7.6 N 9.2 0.0 0.1
02:57 10.3 8.1 86 1026.1 7.6 N 9.2 0.0 0.1
02:58 10.3 8.1 86 1026.0 6.0 NE 9.2 0.0 0.1
03:00 10.3 8.1 86 1026.1 6.0 NE 9.2 0.0 0.1
03:01 10.3 8.1 86 1026.1 6.0 NE 9.2 0.0 0.1
03:02 10.3 8.1 86 1026.0 6.0 NE 7.6 0.0 0.1
03:03 10.3 8.1 86 1026.3 6.0 NE 7.6 0.0 0.1
03:04 10.3 8.1 86 1026.1 6.0 NE 7.6 0.0 0.1
03:05 10.3 8.1 86 1026.2 6.0 NE 7.6 0.0 0.1
03:06 10.3 8.1 86 1026.2 6.0 NE 7.6 0.0 0.1
03:07 10.3 8.1 86 1026.3 6.0 NE 7.6 0.0 0.1
03:08 10.3 8.1 86 1026.1 6.0 NE 6.9 0.0 0.1
03:09 10.3 8.1 86 1026.2 6.0 NE 6.0 0.0 0.1
03:10 10.0 7.8 86 1026.2 3.8 N 6.0 0.0 0.1
03:11 10.0 7.8 86 1026.0 3.8 N 6.0 0.0 0.1
03:12 10.0 7.8 86 1026.1 3.8 N 6.0 0.0 0.1
03:14 9.9 7.7 86 1026.0 3.8 NE 6.0 0.0 0.1
03:15 9.9 7.7 86 1026.0 3.1 NE 6.0 0.0 0.1
03:16 9.9 7.7 86 1025.8 3.1 NE 6.0 0.0 0.1
03:17 9.9 7.7 86 1026.0 1.6 NW 6.0 0.0 0.1
03:18 9.9 7.7 86 1026.3 2.2 E 6.0 0.0 0.1
03:19 9.9 7.7 86 1026.2 2.2 E 6.0 0.0 0.1
03:20 9.9 7.5 85 1026.1 4.5 NW 4.5 0.0 0.1
03:21 9.9 7.5 85 1026.1 4.5 NW 4.5 0.0 0.1
03:22 9.9 7.5 85 1026.2 4.5 NW 4.5 0.0 0.1
03:23 9.8 7.4 85 1026.1 3.1 NE 4.5 0.0 0.1
03:24 9.8 7.4 85 1026.1 3.1 NE 4.5 0.0 0.1
03:25 9.7 7.3 85 1026.1 3.8 N 4.5 0.0 0.1
03:26 9.7 7.3 85 1026.0 3.8 E 4.5 0.0 0.1
03:28 9.7 7.3 85 1026.1 3.8 NW 4.5 0.0 0.1
03:29 9.7 7.3 85 1026.3 3.1 NE 4.5 0.0 0.1
03:30 9.7 7.3 85 1026.1 4.5 E 4.5 0.0 0.1
03:31 9.6 7.2 85 1026.0 3.1 N 4.5 0.0 0.1
03:32 9.6 7.2 85 1025.9 3.1 N 4.5 0.0 0.1
03:33 9.6 7.2 85 1026.1 3.1 N 4.5 0.0 0.1
03:34 9.6 7.2 85 1025.9 3.1 N 4.5 0.0 0.1
03:35 9.6 7.2 85 1026.2 5.4 NW 5.4 0.0 0.1
03:36 9.6 7.2 85 1025.9 6.9 NE 6.9 0.0 0.1
03:37 9.6 7.2 85 1025.9 6.9 NE 6.9 0.0 0.1
03:38 9.6 7.2 85 1026.0 4.5 N 6.9 0.0 0.1
03:39 9.6 7.2 85 1026.1 5.4 N 6.9 0.0 0.1
03:40 9.6 7.2 85 1026.1 5.4 NE 6.9 0.0 0.1
03:42 9.5 7.1 85 1026.2 3.8 NE 6.9 0.0 0.1
03:43 9.5 7.1 85 1026.2 3.8 NW 6.9 0.0 0.1
03:44 9.5 7.1 85 1026.2 1.6 N 6.9 0.0 0.1
03:45 9.5 7.1 85 1026.3 2.2 NE 6.9 0.0 0.1
03:46 9.5 7.1 85 1026.2 3.8 NE 6.9 0.0 0.1
03:47 9.5 7.1 85 1026.1 3.1 N 6.9 0.0 0.1
03:48 9.5 7.1 85 1026.4 3.1 NW 6.9 0.0 0.1
03:49 9.5 7.1 85 1026.4 3.1 N 5.4 0.0 0.1
03:50 9.5 7.1 85 1026.0 3.1 N 5.4 0.0 0.1
03:51 9.5 7.1 85 1025.9 3.1 NNE 3.8 0.0 0.1
03:52 9.5 7.1 85 1026.2 3.1 N 3.8 0.0 0.1
03:53 9.5 7.1 85 1026.4 3.1 N 3.8 0.0 0.1
03:54 9.5 7.1 85 1026.2 3.1 SE 3.8 0.0 0.1
03:56 9.5 7.1 85 1026.2 3.8 N 3.8 0.0 0.1
03:57 9.4 7.0 85 1026.0 2.2 N 3.8 0.0 0.1
03:58 9.4 7.0 85 1026.2 4.5 N 4.5 0.0 0.1
03:59 9.4 7.0 85 1026.3 5.4 NE 5.4 0.0 0.1
04:00 9.4 7.0 85 1026.4 3.1 N 5.4 0.0 0.1
04:01 9.4 7.0 85 1026.3 5.4 WNW 5.4 0.0 0.1
04:02 9.4 7.0 85 1026.1 1.6 W 5.4 0.0 0.1
04:03 9.4 7.0 85 1026.1 3.8 N 5.4 0.0 0.1
04:04 9.4 6.8 84 1026.2 2.2 NE 5.4 0.0 0.1
04:05 9.4 6.8 84 1026.2 3.1 NW 5.4 0.0 0.1
04:06 9.4 6.8 84 1026.1 4.5 N 5.4 0.0 0.1
04:07 9.3 6.7 84 1026.2 3.8 N 5.4 0.0 0.1
04:08 9.3 6.7 84 1026.1 3.8 N 5.4 0.0 0.1
04:10 9.3 6.7 84 1026.2 3.8 NE 5.4 0.0 0.1
04:11 9.3 6.7 84 1025.9 3.8 N 5.4 0.0 0.1
04:12 9.3 6.7 84 1026.2 3.8 NE 5.4 0.0 0.1
04:13 9.3 6.7 84 1026.2 5.4 N 5.4 0.0 0.1
04:14 9.3 6.7 84 1026.4 5.4 N 5.4 0.0 0.1
04:15 9.3 6.7 84 1026.3 3.8 N 5.4 0.0 0.1
04:16 9.3 6.7 84 1026.1 3.1 ENE 5.4 0.0 0.1
04:17 9.3 6.7 84 1026.2 3.1 ENE 5.4 0.0 0.1
04:18 9.3 6.7 84 1026.1 3.8 NNE 5.4 0.0 0.1
04:19 9.3 6.7 84 1026.1 4.5 SE 5.4 0.0 0.1
04:20 9.3 6.7 84 1026.2 4.5 NW 5.4 0.0 0.1
04:21 9.3 6.7 84 1026.2 3.8 N 5.4 0.0 0.1
04:22 9.3 6.7 84 1026.3 3.8 NE 5.4 0.0 0.1
04:24 9.3 6.7 84 1026.1 3.1 N 4.5 0.0 0.1
04:25 9.3 6.7 84 1026.0 4.5 W 4.5 0.0 0.1
04:26 9.3 6.7 84 1026.3 4.5 NW 4.5 0.0 0.1
04:27 9.3 6.7 84 1026.1 3.1 NE 4.5 0.0 0.1
04:28 9.3 6.7 84 1026.1 3.1 E 4.5 0.0 0.1
04:29 9.3 6.7 84 1026.1 5.4 W 5.4 0.0 0.1
04:30 9.3 6.7 84 1026.3 3.8 NE 5.4 0.0 0.1
04:31 9.3 6.7 84 1026.4 3.1 NE 5.4 0.0 0.1
04:32 9.3 6.7 84 1026.5 4.5 SW 5.4 0.0 0.1
04:33 9.3 6.7 84 1025.9 4.5 N 5.4 0.0 0.1
04:34 9.3 6.7 84 1026.3 6.0 NE 6.0 0.0 0.1
04:35 9.3 6.7 84 1026.6 6.0 NE 6.0 0.0 0.1
04:36 9.3 6.7 84 1026.4 7.6 N 7.6 0.0 0.1
04:38 9.3 6.7 84 1026.3 5.4 NNE 7.6 0.0 0.1
04:39 9.3 6.7 84 1026.2 5.4 N 7.6 0.0 0.1
04:40 9.3 6.7 84 1026.1 6.0 N 7.6 0.0 0.1
04:41 9.3 6.7 84 1026.1 6.0 N 7.6 0.0 0.1
04:42 9.3 6.7 84 1026.3 4.5 W 7.6 0.0 0.1
04:43 9.2 6.6 84 1026.2 5.4 N 7.6 0.0 0.1
04:44 9.2 6.6 84 1026.5 5.4 E 7.6 0.0 0.1
04:45 9.2 6.6 84 1026.4 3.1 NW 7.6 0.0 0.1
04:46 9.2 6.6 84 1026.4 5.4 NE 7.6 0.0 0.1
04:47 9.2 6.6 84 1026.4 4.5 W 6.0 0.0 0.1
04:48 9.2 6.6 84 1026.4 5.4 N 6.0 0.0 0.1
04:49 9.2 6.6 84 1026.4 5.4 N 6.0 0.0 0.1
04:50 9.2 6.6 84 1026.2 5.4 N 7.6 0.0 0.1
04:52 9.2 6.6 84 1026.3 6.9 NE 7.6 0.0 0.1
04:53 9.2 6.6 84 1026.5 8.3 W 8.3 0.0 0.1
04:54 9.2 6.6 84 1026.3 8.3 S 8.3 0.0 0.1
04:55 9.2 6.6 84 1026.2 4.5 W 8.3 0.0 0.1
04:56 9.2 6.6 84 1026.3 6.9 N 8.3 0.0 0.1
04:57 9.2 6.6 84 1026.3 4.5 E 8.3 0.0 0.1
04:58 9.2 6.6 84 1026.3 7.6 NE 8.3 0.0 0.1
04:59 9.2 6.6 84 1026.4 7.6 E 8.3 0.0 0.1
05:00 9.2 6.6 84 1026.3 6.0 NW 8.3 0.0 0.1
05:01 9.2 6.6 84 1026.3 6.0 NW 8.3 0.0 0.1
05:02 9.2 6.6 84 1026.3 6.0 NW 8.3 0.0 0.1
05:03 9.2 6.6 84 1026.1 6.0 NW 8.3 0.0 0.1
05:04 9.2 6.6 84 1026.3 6.0 NW 7.6 0.0 0.1
05:06 9.2 6.6 84 1026.5 6.0 NW 7.6 0.0 0.1
05:07 9.2 6.6 84 1026.3 4.5 N 7.6 0.0 0.1
05:08 9.2 6.6 84 1026.4 6.0 NW 7.6 0.0 0.1
05:09 9.2 6.6 84 1026.4 4.5 N 6.0 0.0 0.1
05:10 9.2 6.6 84 1026.2 5.4 NE 6.0 0.0 0.1
05:11 9.2 6.6 84 1026.3 4.5 N 6.0 0.0 0.1
05:12 9.2 6.5 83 1026.5 3.1 N 6.0 0.0 0.1
05:13 9.2 6.5 83 1026.3 6.9 E 6.9 0.0 0.1
05:14 9.2 6.5 83 1026.5 7.6 N 7.6 0.0 0.1
05:15 9.2 6.5 83 1026.3 7.6 N 7.6 0.0 0.1
05:16 9.2 6.5 83 1026.4 6.0 N 7.6 0.0 0.1
05:17 9.2 6.5 83 1026.3 6.0 E 7.6 0.0 0.1
05:18 9.2 6.5 83 1026.4 5.4 S 8.3 0.0 0.1
05:20 9.2 6.5 83 1026.5 4.5 E 8.3 0.0 0.1
05:21 9.2 6.5 83 1026.3 9.8 NE 9.8 0.0 0.1
05:22 9.2 6.5 83 1026.4 7.6 NE 9.8 0.0 0.1
05:23 9.2 6.5 83 1026.5 6.9 SE 9.8 0.0 0.1
05:24 9.2 6.5 83 1026.5 7.6 NE 9.8 0.0 0.1
05:25 9.1 6.4 83 1026.4 3.8 NE 9.8 0.0 0.1
05:26 9.1 6.4 83 1026.5 3.1 NE 9.8 0.0 0.1
05:27 9.1 6.4 83 1026.3 6.0 NE 9.8 0.0 0.1
05:28 9.1 6.4 83 1026.3 5.4 N 9.8 0.0 0.1
05:29 9.1 6.4 83 1026.5 6.0 E 9.8 0.0 0.1
05:30 9.0 6.3 83 1026.5 6.0 NE 9.8 0.0 0.1
05:31 9.0 6.3 83 1026.3 4.5 NW 7.6 0.0 0.1
05:32 9.0 6.3 83 1026.5 4.5 W 7.6 0.0 0.1
05:34 9.0 6.1 82 1026.5 6.9 NW 7.6 0.0 0.1
05:35 9.0 6.1 82 1026.5 4.5 NE 7.6 0.0 0.1
05:36 9.0 6.1 82 1026.3 5.4 N 7.6 0.0 0.1
05:37 8.9 6.0 82 1026.4 4.5 NW 7.6 0.0 0.1
05:38 8.9 6.0 82 1026.5 6.0 NE 7.6 0.0 0.1
05:39 8.9 6.0 82 1026.5 6.0 NW 7.6 0.0 0.1
05:40 8.8 5.9 82 1026.3 6.0 NW 7.6 0.0 0.1
05:41 8.8 5.9 82 1026.2 4.5 N 7.6 0.0 0.1
05:42 8.8 5.9 82 1026.5 3.8 N 7.6 0.0 0.1
05:43 8.8 5.9 82 1026.3 3.1 NW 7.6 0.0 0.1
05:44 8.7 5.8 82 1026.4 4.5 E 6.9 0.0 0.1
05:45 8.7 5.8 82 1026.5 5.4 N 6.0 0.0 0.1
05:46 8.7 5.6 81 1026.4 4.5 N 6.0 0.0 0.1
05:48 8.6 5.5 81 1026.4 6.0 NE 6.0 0.0 0.1
05:49 8.6 5.5 81 1026.4 3.8 NE 6.0 0.0 0.1
05:50 8.6 5.5 81 1026.3 3.8 N 6.0 0.0 0.1
05:51 8.6 5.5 81 1026.5 4.5 NW 6.0 0.0 0.1
05:52 8.5 5.4 81 1026.4 6.9 N 6.9 0.0 0.1
05:53 8.5 5.4 81 1026.5 5.4 NE 6.9 0.0 0.1
05:54 8.5 5.4 81 1026.5 6.0 N 6.9 0.0 0.1
05:55 8.5 5.4 81 1026.6 5.4 NE 6.9 0.0 0.1
05:56 8.4 5.3 81 1026.4 3.8 NW 6.9 0.0 0.1
05:57 8.4 5.3 81 1026.3 3.1 N 6.9 0.0 0.1
05:58 8.4 5.2 80 1026.5 4.5 E 6.9 0.0 0.1
05:59 8.3 5.1 80 1026.5 3.8 W 6.9 0.0 0.1
06:00 8.3 5.1 80 1026.6 4.5 N 6.9 0.0 0.1
06:02 8.2 5.0 80 1026.4 2.2 NE 6.9 0.0 0.1
06:03 8.2 5.0 80 1026.6 3.8 N 6.0 0.0 0.1
06:04 8.2 5.0 80 1026.6 4.5 NE 6.0 0.0 0.1
06:05 8.2 5.0 80 1026.6 4.5 NW 5.4 0.0 0.1
06:06 8.2 5.0 80 1026.8 5.4 E 5.4 0.0 0.1
06:07 8.2 5.0 80 1026.5 4.5 S 5.4 0.0 0.1
06:08 8.2 5.0 80 1026.5 7.6 N 7.6 0.0 0.1
06:09 8.1 4.9 80 1026.5 4.5 N 7.6 0.0 0.1
06:10 8.1 4.9 80 1026.6 3.8 N 7.6 0.0 0.1
06:11 8.1 4.9 80 1026.5 3.8 NW 7.6 0.0 0.1
06:12 8.0 4.8 80 1026.5 3.1 W 7.6 0.0 0.1
06:13 8.0 4.6 79 1026.7 4.5 NE 7.6 0.0 0.1
06:14 8.0 4.6 79 1026.9 3.1 NW 7.6 0.0 0.1
06:16 7.9 4.5 79 1026.6 5.4 NE 7.6 0.0 0.1
06:17 7.9 4.5 79 1026.7 5.4 SE 7.6 0.0 0.1
06:18 7.9 4.5 79 1026.7 4.5 E 7.6 0.0 0.1
06:19 7.9 4.5 79 1026.8 4.5 N 5.4 0.0 0.1
06:20 7.9 4.5 79 1026.8 5.4 N 5.4 0.0 0.1
06:21 7.9 4.5 79 1027.0 1.6 NE 5.4 0.0 0.1
06:22 7.9 4.5 79 1026.7 4.5 N 5.4 0.0 0.1
06:23 7.9 4.5 79 1026.9 4.5 NE 5.4 0.0 0.1
06:24 7.9 4.5 79 1027.0 5.4 N 5.4 0.0 0.1
06:25 7.9 4.5 79 1026.8 5.4 NW 5.4 0.0 0.1
06:26 7.9 4.5 79 1026.8 1.6 N 5.4 0.0 0.1
06:27 7.9 4.5 79 1026.8 2.2 N 5.4 0.0 0.1
06:28 7.9 4.5 79 1026.9 4.5 NE 5.4 0.0 0.1
06:30 7.9 4.5 79 1026.8 3.1 NW 5.4 0.0 0.1
06:31 7.9 4.5 79 1027.0 3.1 NW 5.4 0.0 0.1
06:32 7.8 4.4 79 1026.7 4.5 N 5.4 0.0 0.1
06:33 7.8 4.4 79 1027.0 3.1 N 5.4 0.0 0.1
06:34 7.8 4.4 79 1026.9 3.1 SE 5.4 0.0 0.1
06:35 7.8 4.4 79 1026.8 2.2 NW 5.4 0.0 0.1
06:36 7.8 4.4 79 1027.0 5.4 NW 5.4 0.0 0.1
06:37 7.8 4.4 79 1026.8 4.5 W 5.4 0.0 0.1
06:38 7.8 4.4 79 1026.9 3.8 E 5.4 0.0 0.1
06:39 7.8 4.4 79 1026.9 3.8 N 5.4 0.0 0.1
06:40 7.8 4.4 79 1026.8 5.4 N 5.4 0.0 0.1
06:41 7.8 4.4 79 1026.7 5.4 NE 5.4 0.0 0.1
06:42 7.8 4.4 79 1026.8 3.1 E 5.4 0.0 0.1
06:44 7.8 4.4 79 1027.1 3.8 NE 5.4 0.0 0.1
06:45 7.8 4.4 79 1027.1 4.5 N 5.4 0.0 0.1
06:46 7.8 4.4 79 1027.0 4.5 NE 5.4 0.0 0.1
06:47 7.8 4.4 79 1027.2 4.5 NW 5.4 0.0 0.1
06:48 7.8 4.4 79 1027.1 3.1 NE 5.4 0.0 0.1
06:49 7.7 4.3 79 1027.1 3.8 E 5.4 0.0 0.1
06:50 7.7 4.3 79 1026.9 5.4 N 5.4 0.0 0.1
06:51 7.7 4.3 79 1027.0 5.4 E 5.4 0.0 0.1
06:52 7.7 4.3 79 1027.1 3.8 N 5.4 0.0 0.1
06:53 7.7 4.3 79 1027.0 3.1 SE 5.4 0.0 0.1
06:54 7.7 4.3 79 1027.2 3.1 NW 5.4 0.0 0.1
06:55 7.7 4.3 79 1026.8 3.8 N 5.4 0.0 0.1
06:56 7.7 4.3 79 1027.1 2.2 W 5.4 0.0 0.1
06:58 7.7 4.3 79 1026.9 2.2 NW 5.4 0.0 0.1
06:59 7.7 4.3 79 1027.0 2.2 NE 5.4 0.0 0.1
07:00 7.7 4.3 79 1027.2 2.2 NE 5.4 0.0 0.1
07:01 7.7 4.3 79 1027.2 2.2 NE 4.5 0.0 0.1
07:02 7.7 4.3 79 1027.0 2.2 NE 4.5 0.0 0.1
07:03 7.7 4.3 79 1027.1 2.2 NE 4.5 0.0 0.1
07:04 7.7 4.3 79 1027.0 2.2 NE 4.5 0.0 0.1
07:05 7.7 4.3 79 1027.0 2.2 NE 3.8 0.0 0.1
07:06 7.7 4.3 79 1027.0 2.2 NE 3.1 0.0 0.1
07:07 7.7 4.3 79 1027.2 1.6 SE 3.1 0.0 0.1
07:08 7.7 4.3 79 1027.0 1.6 SE 2.2 0.0 0.1
07:09 7.7 4.3 79 1027.1 3.8 NW 3.8 0.0 0.1
07:10 7.6 4.2 79 1026.9 2.2 NE 3.8 0.0 0.1
07:11 7.6 4.2 79 1027.0 3.1 NE 3.8 0.0 0.1
07:13 7.6 4.0 78 1027.0 1.6 N 3.8 0.0 0.1
07:14 7.6 4.0 78 1027.1 2.2 E 3.8 0.0 0.1
07:15 7.6 4.0 78 1027.1 2.2 E 3.8 0.0 0.1
07:16 7.6 4.0 78 1027.0 3.1 NE 3.8 0.0 0.1
07:17 7.5 3.9 78 1027.0 3.1 N 3.8 0.0 0.1
07:18 7.5 3.9 78 1027.0 3.8 E 3.8 0.0 0.1
07:19 7.5 3.9 78 1027.1 3.8 NE 3.8 0.0 0.1
07:20 7.5 3.9 78 1027.0 3.8 NE 3.8 0.0 0.1
07:21 7.5 3.9 78 1027.0 2.2 NE 3.8 0.0 0.1
07:22 7.5 3.9 78 1026.8 2.2 N 3.8 0.0 0.1
07:23 7.5 3.9 78 1026.9 2.2 NE 3.8 0.0 0.1
07:24 7.5 3.9 78 1027.0 2.2 N 3.8 0.0 0.1
07:25 7.4 4.7 83 1027.2 1.6 E 3.8 0.0 0.1
07:27 7.4 4.7 83 1027.1 3.8 E 3.8 0.0 0.1
07:28 7.4 4.7 83 1027.0 2.2 NE 3.8 0.0 0.1
07:29 7.4 4.7 83 1027.2 3.1 E 3.8 0.0 0.1
07:30 7.4 4.7 83 1027.4 3.1 E 3.8 0.0 0.1
07:31 7.4 4.7 83 1026.9 3.8 NE 3.8 0.0 0.1
07:32 7.4 4.7 83 1027.2 3.8 NE 3.8 0.0 0.1
07:33 7.4 4.7 83 1026.9 3.8 NE 3.8 0.0 0.1
07:34 7.3 4.6 83 1026.9 3.1 E 3.8 0.0 0.1
07:35 7.3 4.6 83 1027.2 3.1 ESE 3.8 0.0 0.1
07:36 7.3 4.6 83 1027.0 2.2 NE 3.8 0.0 0.1
07:37 7.3 4.6 83 1027.1 2.2 NE 3.8 0.0 0.1
07:38 7.3 4.6 83 1027.2 2.2 N 3.8 0.0 0.1
07:39 7.3 4.6 83 1027.1 2.2 N 3.8 0.0 0.1
07:41 7.2 4.5 83 1027.3 2.2 E 3.8 0.0 0.1
07:42 7.2 4.5 83 1027.1 2.2 NE 3.8 0.0 0.1
07:43 7.2 4.5 83 1027.1 2.2 NE 3.8 0.0 0.1
07:44 7.2 4.5 83 1027.2 2.2 NE 3.1 0.0 0.1
07:45 7.2 4.5 83 1027.1 3.1 NE 3.1 0.0 0.1
07:46 7.2 4.5 83 1027.3 3.8 NE 3.8 0.0 0.1
07:47 7.2 4.5 83 1027.5 3.8 NE 3.8 0.0 0.1
07:48 7.2 4.5 83 1027.2 3.8 NE 3.8 0.0 0.1
07:49 7.1 4.4 83 1027.4 3.1 E 3.8 0.0 0.1
07:50 7.1 4.4 83 1027.3 1.6 NE 3.8 0.0 0.1
07:51 7.1 4.4 83 1027.3 1.6 N 3.8 0.0 0.1
07:52 7.1 4.4 83 1027.1 1.6 NE 3.8 0.0 0.1
07:53 7.1 4.4 83 1027.4 1.6 NE 3.8 0.0 0.1
07:55 7.1 4.4 83 1027.4 3.1 NE 3.8 0.0 0.1
07:56 7.1 4.4 83 1027.4 1.6 NE 3.8 0.0 0.1
07:57 7.1 4.4 83 1027.3 3.1 NE 3.8 0.0 0.1
07:58 7.0 4.3 83 1027.3 3.1 E 3.8 0.0 0.1
07:59 7.0 4.3 83 1027.3 3.1 NE 3.1 0.0 0.1
08:00 7.0 4.3 83 1027.2 3.1 NE 3.1 0.0 0.1
08:01 7.0 4.3 83 1027.3 2.2 E 3.1 0.0 0.1
08:02 7.0 4.3 83 1027.4 1.6 NE 3.1 0.0 0.1
08:03 7.0 4.3 83 1027.4 2.2 NE 3.1 0.0 0.1
08:04 7.0 4.3 83 1027.4 3.8 NE 3.8 0.0 0.1
08:05 7.0 4.3 83 1027.4 3.1 E 3.8 0.0 0.1
08:06 7.0 4.3 83 1027.5 3.1 NNE 3.8 0.0 0.1
08:07 7.0 4.3 83 1027.4 2.2 NE 3.8 0.0 0.1
08:09 7.0 4.3 83 1027.5 3.1 NNE 3.8 0.0 0.1
08:10 7.0 4.3 83 1027.5 3.1 NE 3.8 0.0 0.1
08:11 7.0 4.3 83 1027.5 3.1 NE 3.8 0.0 0.1
08:12 7.0 4.3 83 1027.7 2.2 NE 3.8 0.0 0.1
08:13 7.0 4.3 83 1027.6 3.8 NE 3.8 0.0 0.1
08:14 7.0 4.3 83 1027.6 3.8 E 3.8 0.0 0.1
08:15 7.0 4.3 83 1027.6 3.1 NE 3.8 0.0 0.1
08:16 7.0 4.3 83 1027.4 3.1 NE 3.8 0.0 0.1
08:17 7.1 4.4 83 1027.6 3.1 E 3.8 0.0 0.1
08:18 7.1 4.4 83 1027.5 3.8 E 3.8 0.0 0.1
08:19 7.1 4.4 83 1027.7 3.1 NE 3.8 0.0 0.1
08:20 7.1 4.4 83 1027.6 3.1 NE 3.8 0.0 0.1
08:21 7.1 4.4 83 1027.7 2.2 E 3.8 0.0 0.1
08:23 7.1 4.4 83 1027.5 3.8 NE 3.8 0.0 0.1
08:24 7.1 4.4 83 1027.4 3.8 NE 3.8 0.0 0.1
08:25 7.1 4.4 83 1027.7 2.2 NE 3.8 0.0 0.1
08:26 7.1 4.4 83 1027.7 3.1 N 3.8 0.0 0.1
08:27 7.2 4.5 83 1027.7 3.1 NE 3.8 0.0 0.1
08:28 7.2 4.5 83 1027.7 2.2 NE 3.8 0.0 0.1
08:29 7.2 4.5 83 1027.3 2.2 NE 3.8 0.0 0.1
08:30 7.2 4.5 83 1027.5 2.2 NE 3.8 0.0 0.1
08:31 7.2 4.5 83 1027.7 2.2 NE 3.8 0.0 0.1
08:32 7.2 4.5 83 1027.7 1.6 N 3.8 0.0 0.1
08:33 7.2 4.5 83 1027.5 0.7 NE 3.8 0.0 0.1
08:34 7.2 4.5 83 1027.6 1.6 N 3.8 0.0 0.1
08:35 7.2 4.5 83 1027.5 1.6 N 3.1 0.0 0.1
08:37 7.2 4.5 83 1027.5 0.7 NE 2.2 0.0 0.1
08:38 7.2 4.5 83 1027.6 0.7 N 2.2 0.0 0.1
08:39 7.2 4.5 83 1027.6 0.7 N 2.2 0.0 0.1
08:40 7.2 4.5 83 1027.5 0.7 NE 2.2 0.0 0.1
08:41 7.2 4.5 83 1027.5 1.6 N 2.2 0.0 0.1
08:42 7.2 4.7 84 1027.4 0.7 N 1.6 0.0 0.1
08:43 7.3 4.8 84 1027.4 0.7 E 1.6 0.0 0.1
08:44 7.3 4.8 84 1027.7 2.2 NE 2.2 0.0 0.1
08:45 7.3 4.8 84 1027.7 3.1 E 3.1 0.0 0.1
08:46 7.3 4.8 84 1027.6 2.2 E 3.1 0.0 0.1
08:47 7.3 4.8 84 1027.8 2.2 NE 3.1 0.0 0.1
08:48 7.3 4.8 84 1027.7 2.2 NE 3.1 0.0 0.1
08:49 7.3 4.8 84 1027.7 2.2 NE 3.1 0.0 0.1
08:51 7.4 4.9 84 1027.7 1.6 NE 3.1 0.0 0.1
08:52 7.4 4.9 84 1027.7 2.2 N 3.1 0.0 0.1
08:53 7.4 4.9 84 1027.6 1.6 NE 3.1 0.0 0.1
08:54 7.4 4.9 84 1027.8 0.7 NE 3.1 0.0 0.1
08:55 7.4 4.9 84 1027.6 0.7 NE 3.1 0.0 0.1
08:56 7.4 4.9 84 1027.5 0.7 NE 2.2 0.0 0.1
08:57 7.4 4.9 84 1027.6 0.7 NE 2.2 0.0 0.1
08:58 7.4 4.9 84 1027.7 0.7 N 2.2 0.0 0.1
08:59 7.4 4.9 84 1027.7 0.7 N 2.2 0.0 0.1
09:00 7.4 4.9 84 1027.6 1.6 N 2.2 0.0 0.1
09:01 7.4 4.9 84 1027.6 1.6 N 2.2 0.0 0.1
09:02 7.4 4.9 84 1027.7 1.6 N 2.2 0.0 0.1
09:03 7.4 4.9 84 1027.7 1.6 N 1.6 0.0 0.1
09:05 7.4 4.9 84 1027.6 1.6 N 1.6 0.0 0.1
09:06 7.5 4.1 79 1027.9 0.7 N 1.6 0.0 0.1
09:07 7.5 4.1 79 1027.9 0.7 N 1.6 0.0 0.1
09:08 7.5 4.1 79 1027.8 1.6 NE 1.6 0.0 0.1
09:09 7.5 4.1 79 1027.9 0.7 E 1.6 0.0 0.1
09:10 7.5 4.1 79 1027.9 0.0 E 1.6 0.0 0.1
09:11 7.5 4.1 79 1027.9 0.0 E 1.6 0.0 0.1
09:12 7.5 4.1 79 1027.8 0.7 E 1.6 0.0 0.1
09:13 7.5 4.1 79 1027.8 0.7 S 1.6 0.0 0.1
09:14 7.6 4.2 79 1027.7 0.7 S 1.6 0.0 0.1
09:15 7.6 4.2 79 1027.8 2.2 N 2.2 0.0 0.1
09:16 7.6 4.2 79 1027.7 1.6 E 2.2 0.0 0.1
09:17 7.6 4.2 79 1027.7 1.6 E 2.2 0.0 0.1
09:18 7.6 4.2 79 1027.8 2.2 NW 2.2 0.0 0.1
09:19 7.6 4.2 79 1027.8 2.2 N 2.2 0.0 0.1
09:20 7.6 4.2 79 1027.9 1.6 NE 2.2 0.0 0.1
09:21 7.6 4.2 79 1027.9 2.2 NE 2.2 0.0 0.1
09:22 7.7 4.3 79 1027.7 1.6 NE 2.2 0.0 0.1
09:24 7.7 4.3 79 1027.8 0.7 SE 2.2 0.0 0.1
09:25 7.7 4.5 80 1027.8 0.7 SW 2.2 0.0 0.1
09:26 7.7 4.5 80 1027.8 3.1 NE 3.1 0.0 0.1
09:27 7.8 4.6 80 1027.9 3.1 NE 3.1 0.0 0.1
09:28 7.8 4.6 80 1027.9 2.2 N 3.1 0.0 0.1
09:29 7.8 4.6 80 1027.7 3.1 NE 3.1 0.0 0.1
09:30 7.8 4.6 80 1028.0 2.2 NE 3.1 0.0 0.1
09:31 7.8 4.6 80 1027.9 1.6 N 3.1 0.0 0.1
09:32 7.8 4.6 80 1028.1 1.6 NW 3.1 0.0 0.1
09:33 7.8 4.6 80 1028.0 1.6 NW 3.1 0.0 0.1
09:34 7.9 4.7 80 1027.9 2.2 N 3.1 0.0 0.1
09:35 7.9 4.7 80 1028.0 0.7 NW 3.1 0.0 0.1
09:36 7.9 4.7 80 1028.0 3.1 N 3.1 0.0 0.1
09:38 7.9 4.7 80 1028.0 1.6 NW 3.1 0.0 0.1
09:39 7.9 4.7 80 1028.1 1.6 NW 3.1 0.0 0.1
09:40 7.9 4.7 80 1028.1 1.6 NW 3.1 0.0 0.1
09:41 8.0 4.8 80 1027.8 3.1 W 3.1 0.0 0.1
09:42 8.0 4.8 80 1028.0 2.2 NW 3.1 0.0 0.1
09:43 8.0 4.8 80 1028.0 2.2 NW 3.1 0.0 0.1
09:44 8.0 4.8 80 1028.1 1.6 N 3.1 0.0 0.1
09:45 8.1 4.7 79 1027.9 1.6 N 3.1 0.0 0.1
09:46 8.1 4.7 79 1028.0 2.2 SE 3.1 0.0 0.1
09:47 8.1 4.7 79 1028.0 3.1 NE 3.1 0.0 0.1
09:48 8.1 4.7 79 1028.0 1.6 E 3.1 0.0 0.1
09:49 8.1 4.7 79 1028.0 1.6 NE 3.1 0.0 0.1
09:50 8.1 4.7 79 1028.1 2.2 NE 3.1 0.0 0.1
09:52 8.1 4.7 79 1028.1 0.7 N 3.1 0.0 0.1
09:53 8.1 4.7 79 1027.8 3.1 NE 3.1 0.0 0.1
09:54 8.1 4.7 79 1027.9 3.1 NW 3.1 0.0 0.1
09:55 8.1 4.7 79 1027.9 1.6 N 3.1 0.0 0.1
09:56 8.1 4.7 79 1027.9 2.2 NW 3.1 0.0 0.1
09:57 8.1 4.7 79 1028.0 2.2 NE 3.1 0.0 0.1
09:58 8.1 4.7 79 1027.8 2.2 NE 3.1 0.0 0.1
09:59 8.2 4.8 79 1027.8 3.1 NE 3.1 0.0 0.1
10:00 8.2 4.8 79 1028.0 3.8 N 3.8 0.0 0.1
10:01 8.2 4.8 79 1027.9 3.8 N 3.8 0.0 0.1
10:02 8.2 4.8 79 1028.0 3.8 N 3.8 0.0 0.1
10:03 8.2 4.8 79 1027.9 3.8 N 3.8 0.0 0.1
10:04 8.2 4.8 79 1027.8 3.8 N 3.8 0.0 0.1
10:06 8.2 4.6 78 1028.1 3.8 NE 3.8 0.0 0.1
10:07 8.3 4.7 78 1028.0 3.1 NE 3.8 0.0 0.1
10:08 8.3 4.7 78 1028.0 3.1 NE 3.8 0.0 0.1
10:09 8.3 4.7 78 1028.1 2.2 NE 3.8 0.0 0.1
10:10 8.3 4.7 78 1028.0 3.1 NE 3.8 0.0 0.1
10:11 8.3 4.7 78 1028.0 3.1 NE 3.8 0.0 0.1
10:12 8.3 4.7 78 1028.1 1.6 NE 3.8 0.0 0.1
10:13 8.3 4.7 78 1027.9 1.6 NE 3.8 0.0 0.1
10:14 8.4 4.8 78 1028.1 2.2 ESE 3.8 0.0 0.1
10:15 8.4 4.8 78 1028.1 3.1 NW 3.8 0.0 0.1
10:16 8.4 4.8 78 1028.1 2.2 NE 3.8 0.0 0.1
10:17 8.4 4.8 78 1028.1 2.2 NE 3.1 0.0 0.1
10:18 8.5 4.9 78 1028.2 2.2 N 3.1 0.0 0.1
10:20 8.5 4.9 78 1028.2 2.2 N 3.1 0.0 0.1
10:21 8.5 4.9 78 1028.1 2.2 NE 3.1 0.0 0.1
10:22 8.6 5.0 78 1028.2 2.2 NE 3.1 0.0 0.1
10:23 8.6 5.0 78 1028.1 2.2 NE 3.1 0.0 0.1
10:24 8.6 5.0 78 1028.1 2.2 N 3.1 0.0 0.1
10:25 8.7 5.1 78 1028.0 3.1 NW 3.1 0.0 0.1
10:26 8.7 5.1 78 1028.0 3.1 E 3.1 0.0 0.1
10:27 8.8 5.2 78 1028.1 2.2 N 3.1 0.0 0.1
10:28 8.8 5.2 78 1028.2 2.2 NW 3.1 0.0 0.1
10:29 8.9 5.3 78 1027.9 3.1 W 3.1 0.0 0.1
10:30 9.0 5.4 78 1028.3 4.5 NW 4.5 0.0 0.1
10:31 9.0 5.4 78 1028.1 4.5 N 4.5 0.0 0.1
10:32 9.0 5.6 79 1028.1 2.2 N 4.5 0.0 0.1
10:34 9.2 5.6 78 1028.3 2.2 N 4.5 0.0 0.1
10:35 9.2 5.6 78 1028.1 4.5 NW 4.5 0.0 0.1
10:36 9.2 5.6 78 1028.1 4.5 NW 4.5 0.0 0.1
10:37 9.3 5.5 77 1028.2 5.4 NW 5.4 0.0 0.1
10:38 9.3 5.5 77 1028.4 3.1 N 5.4 0.0 0.1
10:39 9.4 5.6 77 1028.0 4.5 NW 5.4 0.0 0.1
10:40 9.4 5.4 76 1028.1 2.2 N 5.4 0.0 0.1
10:41 9.5 5.5 76 1028.0 3.1 NE 5.4 0.0 0.1
10:42 9.5 5.5 76 1028.1 3.1 NE 5.4 0.0 0.1
10:43 9.5 5.3 75 1028.2 3.1 W 5.4 0.0 0.1
10:44 9.6 5.4 75 1028.2 3.1 NE 5.4 0.0 0.1
10:45 9.6 5.4 75 1028.0 3.1 E 5.4 0.0 0.1
10:46 9.6 5.2 74 1028.1 4.5 N 5.4 0.0 0.1
10:48 9.6 5.2 74 1028.1 4.5 NNE 5.4 0.0 0.1
10:49 9.6 5.2 74 1028.1 4.5 NE 5.4 0.0 0.1
10:50 9.6 5.2 74 1028.0 3.8 N 5.4 0.0 0.1
10:51 9.5 5.1 74 1028.0 3.8 NW 5.4 0.0 0.1
10:52 9.5 5.1 74 1028.3 3.1 E 5.4 0.0 0.1
10:53 9.5 4.9 73 1028.1 4.5 NE 4.5 0.0 0.1
10:54 9.5 4.9 73 1028.2 4.5 N 4.5 0.0 0.1
10:55 9.5 4.9 73 1028.1 3.8 N 4.5 0.0 0.1
10:56 9.5 4.9 73 1028.1 4.5 NE 4.5 0.0 0.1
10:57 9.5 4.9 73 1028.0 4.5 W 4.5 0.0 0.1
10:58 9.6 5.0 73 1028.3 5.4 SW 5.4 0.0 0.1
10:59 9.7 5.1 73 1028.2 4.5 N 5.4 0.0 0.1
11:00 9.7 5.1 73 1028.2 4.5 N 5.4 0.0 0.1
11:02 9.8 5.0 72 1028.1 4.5 NE 5.4 0.0 0.1
11:03 9.9 5.1 72 1028.3 3.8 NE 5.4 0.0 0.1
11:04 9.9 5.1 72 1028.3 3.8 NE 5.4 0.0 0.1
11:05 9.9 5.1 72 1027.9 4.5 SW 5.4 0.0 0.1
11:06 9.9 5.1 72 1028.0 3.8 N 5.4 0.0 0.1
11:07 9.9 5.1 72 1028.2 6.9 N 6.9 0.0 0.1
11:08 9.9 4.9 71 1028.1 6.9 NE 6.9 0.0 0.1
11:09 9.9 4.9 71 1028.1 4.5 SW 6.9 0.0 0.1
11:10 10.0 5.0 71 1028.1 4.5 NE 6.9 0.0 0.1
11:11 10.0 5.0 71 1027.8 6.0 E 6.9 0.0 0.1
11:13 10.1 5.1 71 1028.0 6.9 NE 6.9 0.0 0.1
11:14 10.1 5.1 71 1027.9 6.9 N 6.9 0.0 0.1
11:15 10.1 5.1 71 1028.0 6.0 W 9.8 0.0 0.1
11:16 10.1 5.1 71 1028.1 6.0 NE 9.8 0.0 0.1
11:17 10.1 5.1 71 1027.8 4.5 N 9.8 0.0 0.1
11:19 10.2 5.2 71 1028.2 6.9 NW 9.8 0.0 0.1
11:20 10.2 5.2 71 1028.0 5.4 N 9.8 0.0 0.1
11:21 10.2 5.2 71 1028.1 3.8 N 9.8 0.0 0.1
11:22 10.3 5.3 71 1028.1 5.4 N 9.8 0.0 0.1
11:23 10.3 5.3 71 1028.0 5.4 NW 9.8 0.0 0.1
11:24 10.4 5.4 71 1027.9 3.1 N 9.8 0.0 0.1
11:25 10.4 5.4 71 1028.1 3.8 NW 9.8 0.0 0.1
11:26 10.4 5.4 71 1027.8 4.5 NW 6.9 0.0 0.1
11:27 10.5 5.5 71 1027.8 4.5 NW 6.9 0.0 0.1
11:28 10.6 5.6 71 1027.9 4.5 N 6.9 0.0 0.1
11:29 10.6 5.6 71 1027.7 4.5 NW 6.9 0.0 0.1
11:30 10.7 5.7 71 1028.0 3.1 N 5.4 0.0 0.1
11:31 10.7 5.7 71 1027.9 5.4 NE 5.4 0.0 0.1
11:32 10.7 5.7 71 1027.8 3.1 N 5.4 0.0 0.1
11:34 10.7 5.5 70 1028.0 6.9 E 6.9 0.0 0.1
11:35 10.7 5.5 70 1027.9 3.1 NW 6.9 0.0 0.1
11:36 10.7 5.5 70 1027.9 3.1 NW 6.9 0.0 0.1
11:37 10.9 5.9 71 1027.9 3.1 ESE 6.9 0.0 0.1
11:38 10.9 5.6 70 1027.8 4.5 NE 6.9 0.0 0.1
11:39 10.9 5.6 70 1027.7 5.4 NE 6.9 0.0 0.1
11:40 10.9 5.6 70 1027.7 6.0 N 6.9 0.0 0.1
11:41 10.9 5.6 70 1027.9 6.0 W 6.9 0.0 0.1
11:42 10.9 5.6 70 1028.0 5.4 N 6.9 0.0 0.1
11:43 11.0 5.7 70 1027.9 5.4 NW 6.9 0.0 0.1
11:44 11.0 5.7 70 1027.8 4.5 NE 6.9 0.0 0.1
11:45 11.1 5.8 70 1027.8 6.0 NW 6.0 0.0 0.1
11:46 11.1 5.8 70 1027.8 6.9 NE 6.9 0.0 0.1
11:47 11.1 5.8 70 1028.0 4.5 NE 6.9 0.0 0.1
11:49 11.1 5.8 70 1027.9 3.8 NW 6.9 0.0 0.1
11:50 11.1 5.8 70 1027.8 5.4 N 6.9 0.0 0.1
11:51 11.1 5.6 69 1028.0 5.4 N 6.9 0.0 0.1
11:52 11.1 5.6 69 1027.9 4.5 E 6.9 0.0 0.1
11:53 11.1 5.2 67 1027.8 6.9 W 6.9 0.0 0.1
11:54 11.1 5.2 67 1027.7 6.9 N 6.9 0.0 0.1
11:55 11.0 4.9 66 1028.0 5.4 NW 6.9 0.0 0.1
11:56 11.0 4.9 66 1027.8 3.8 E 6.9 0.0 0.1
11:57 11.0 4.9 66 1027.7 6.9 N 6.9 0.0 0.1
11:58 10.9 4.8 66 1028.0 4.5 SE 9.2 0.0 0.1
11:59 10.9 4.8 66 1027.8 4.5 NE 9.2 0.0 0.1
12:00 10.9 4.8 66 1027.8 4.5 NE 9.2 0.0 0.1
12:01 10.9 4.8 66 1027.8 4.5 NE 9.2 0.0 0.1
12:03 10.9 4.8 66 1027.9 4.5 NE 9.2 0.0 0.1
12:04 10.9 4.8 66 1027.9 4.5 NE 9.2 0.0 0.1
12:05 10.9 4.8 66 1027.9 8.3 NE 9.2 0.0 0.1
12:06 10.9 4.8 66 1027.9 8.3 NE 9.2 0.0 0.1
12:07 11.1 5.0 66 1027.9 8.3 NE 9.2 0.0 0.1
12:08 11.1 5.2 67 1028.1 5.4 N 9.2 0.0 0.1
12:09 11.1 5.0 66 1027.9 7.6 NW 8.3 0.0 0.1
12:10 11.1 5.0 66 1027.8 7.6 NW 8.3 0.0 0.1
12:11 11.2 5.1 66 1027.9 6.0 NE 8.3 0.0 0.1
12:12 11.3 5.2 66 1027.8 5.4 NE 8.3 0.0 0.1
12:13 11.3 5.2 66 1027.8 5.4 NE 8.3 0.0 0.1
12:14 11.4 5.3 66 1028.0 6.0 NE 8.3 0.0 0.1
12:15 11.5 5.4 66 1027.9 4.5 E 8.3 0.0 0.1
12:17 11.5 5.6 67 1027.6 6.0 NW 7.6 0.0 0.1
12:18 11.4 5.3 66 1027.9 6.9 S 7.6 0.0 0.1
12:19 11.4 5.3 66 1027.6 6.9 S 7.6 0.0 0.1
12:20 11.3 5.0 65 1027.8 6.0 N 7.6 0.0 0.1
12:21 11.2 4.9 65 1027.7 6.0 E 6.9 0.0 0.1
12:22 11.2 4.9 65 1027.8 7.6 N 7.6 0.0 0.1
12:23 11.2 4.9 65 1027.7 5.4 S 7.6 0.0 0.1
12:24 11.2 4.9 65 1027.6 5.4 NE 7.6 0.0 0.1
12:25 11.1 5.0 66 1027.6 6.0 W 7.6 0.0 0.1
12:26 11.1 4.8 65 1027.7 8.3 N 8.3 0.0 0.1
12:27 11.1 4.8 65 1027.5 6.0 NW 8.3 0.0 0.1
12:28 11.1 5.0 66 1027.5 3.8 N 8.3 0.0 0.1
12:29 11.1 5.2 67 1027.5 5.4 NE 8.3 0.0 0.1
12:31 11.3 5.6 68 1027.6 6.9 N 8.3 0.0 0.1
12:32 11.3 5.4 67 1027.7 6.9 W 8.3 0.0 0.1
12:33 11.3 5.4 67 1027.5 6.9 W 8.3 0.0 0.1
12:34 11.2 5.1 66 1027.7 6.9 N 8.3 0.0 0.1
12:35 11.2 5.1 66 1027.6 6.9 NNW 8.3 0.0 0.1
12:36 11.2 5.1 66 1027.7 6.9 NNW 8.3 0.0 0.1
12:37 11.1 5.2 67 1027.9 5.4 NE 8.3 0.0 0.1
12:38 11.1 5.2 67 1027.7 6.9 N 8.3 0.0 0.1
12:39 11.1 5.2 67 1027.7 6.9 N 8.3 0.0 0.1
12:40 11.1 5.2 67 1027.7 6.9 NE 8.3 0.0 0.1
12:41 11.0 5.1 67 1027.9 7.6 N 8.3 0.0 0.1
12:42 10.9 4.8 66 1027.5 6.0 E 8.3 0.0 0.1
12:43 10.9 4.8 66 1027.7 4.5 NE 8.3 0.0 0.1
12:44 10.9 5.0 67 1027.6 4.5 E 8.3 0.0 0.1
12:46 10.9 5.2 68 1027.6 5.4 NW 8.3 0.0 0.1
12:47 10.9 5.2 68 1027.6 6.0 NE 7.6 0.0 0.1
12:48 10.9 5.2 68 1027.6 6.0 NE 7.6 0.0 0.1
12:49 11.0 5.5 69 1027.6 5.4 N 7.6 0.0 0.1
12:50 11.0 5.5 69 1027.6 5.4 N 7.6 0.0 0.1
12:51 11.0 5.5 69 1027.7 4.5 NW 7.6 0.0 0.1
12:52 11.0 5.5 69 1027.8 4.5 N 6.9 0.0 0.1
12:53 11.0 5.3 68 1027.5 6.9 NW 6.9 0.0 0.1
12:54 10.9 5.2 68 1027.7 8.3 NE 8.3 0.0 0.1
12:55 10.9 5.2 68 1027.5 8.3 NE 8.3 0.0 0.1
12:56 10.9 5.2 68 1027.7 5.4 SE 8.3 0.0 0.1
12:57 10.9 5.2 68 1027.6 5.4 SE 8.3 0.0 0.1
12:58 10.8 5.1 68 1027.6 6.0 NW 8.3 0.0 0.1
12:59 10.8 5.1 68 1027.7 6.0 NW 8.3 0.0 0.1
13:01 10.8 5.1 68 1027.5 6.0 NW 8.3 0.0 0.1
13:02 10.8 5.1 68 1027.4 6.0 NW 8.3 0.0 0.1
13:03 10.8 5.1 68 1027.4 6.0 NW 8.3 0.0 0.1
13:04 10.8 5.1 68 1027.5 6.0 NW 8.3 0.0 0.1
13:05 10.8 5.1 68 1027.5 8.3 N 8.3 0.0 0.1
13:06 10.6 4.9 68 1027.3 7.6 NW 8.3 0.0 0.1
13:07 10.6 4.9 68 1027.3 6.0 NE 8.3 0.0 0.1
13:08 10.6 4.9 68 1027.4 6.0 NW 8.3 0.0 0.1
13:09 10.6 4.9 68 1027.2 5.4 N 8.3 0.0 0.1
13:10 10.6 4.9 68 1027.5 6.0 N 8.3 0.0 0.1
13:11 10.5 4.8 68 1027.5 9.2 NW 9.2 0.0 0.1
13:12 10.5 4.6 67 1027.3 9.2 NW 9.2 0.0 0.1
13:14 10.6 4.7 67 1027.4 7.6 E 9.2 0.0 0.1
13:15 10.6 4.7 67 1027.3 7.6 W 9.2 0.0 0.1
13:16 10.6 4.7 67 1027.5 4.5 NE 9.2 0.0 0.1
13:17 10.7 4.8 67 1027.6 6.0 N 9.2 0.0 0.1
13:18 10.7 4.8 67 1027.2 4.5 SW 9.2 0.0 0.1
13:19 10.8 4.9 67 1027.2 5.4 NW 9.2 0.0 0.1
13:20 10.8 4.9 67 1027.5 6.9 NW 9.2 0.0 0.1
13:22 10.8 5.1 68 1027.1 3.1 NW 9.2 0.0 0.1
13:23 10.8 5.1 68 1027.2 3.8 SW 7.6 0.0 0.1
13:24 10.8 5.1 68 1027.2 3.8 SW 7.6 0.0 0.1
13:25 10.8 5.1 68 1027.3 5.4 NE 6.9 0.0 0.1
13:26 10.8 5.1 68 1027.3 6.0 NE 6.9 0.0 0.1
13:27 10.7 5.0 68 1027.5 5.4 N 6.9 0.0 0.1
13:28 10.7 5.0 68 1027.4 5.4 N 6.9 0.0 0.1
13:29 10.7 4.8 67 1027.3 8.3 N 8.3 0.0 0.1
13:30 10.7 4.8 67 1027.5 5.4 N 8.3 0.0 0.1
13:31 10.7 4.8 67 1027.3 6.0 SE 8.3 0.0 0.1
13:32 10.7 4.8 67 1027.3 9.2 NE 9.2 0.0 0.1
13:33 10.6 4.5 66 1027.5 6.9 NE 9.2 0.0 0.1
13:34 10.6 4.7 67 1027.2 6.0 NE 9.2 0.0 0.1
13:35 10.6 4.7 67 1027.2 6.9 NW 9.2 0.0 0.1
13:36 10.6 4.7 67 1027.3 6.9 NW 9.2 0.0 0.1
13:38 10.7 5.0 68 1027.2 6.0 NW 9.2 0.0 0.1
13:39 10.7 5.0 68 1027.3 6.0 NW 9.2 0.0 0.1
13:40 10.7 5.0 68 1027.3 6.0 NW 9.2 0.0 0.1
13:41 10.8 4.9 67 1027.4 9.2 NE 9.2 0.0 0.1
13:42 10.8 4.9 67 1027.3 6.9 NE 9.2 0.0 0.1
13:43 10.8 4.9 67 1027.3 6.0 N 9.2 0.0 0.1
13:44 10.8 4.9 67 1027.2 7.6 NE 9.2 0.0 0.1
13:45 10.9 5.0 67 1027.3 7.6 NE 9.2 0.0 0.1
13:46 10.9 4.8 66 1027.2 6.9 N 9.2 0.0 0.1
13:47 10.9 4.8 66 1027.3 5.4 NW 9.2 0.0 0.1
13:48 10.9 4.8 66 1027.3 3.8 NE 9.2 0.0 0.1
13:49 10.9 5.0 67 1027.5 3.8 WNW 9.2 0.0 0.1
13:50 10.9 5.0 67 1027.1 6.0 NE 9.2 0.0 0.1
13:51 10.8 4.9 67 1027.2 6.9 W 7.6 0.0 0.1
13:52 10.8 4.9 67 1027.3 6.9 N 7.6 0.0 0.1
13:53 10.8 4.9 67 1027.1 3.8 N 7.6 0.0 0.1
13:55 10.8 4.9 67 1027.1 3.8 N 6.9 0.0 0.1
13:56 10.8 4.9 67 1027.2 5.4 NE 6.9 0.0 0.1
13:57 10.8 4.9 67 1027.0 7.6 N 7.6 0.0 0.1
13:58 10.7 4.8 67 1027.0 7.6 WNW 7.6 0.0 0.1
13:59 10.7 4.8 67 1027.4 6.0 N 7.6 0.0 0.1
14:00 10.7 4.8 67 1027.2 4.5 N 7.6 0.0 0.1
14:01 10.7 4.8 67 1027.4 4.5 N 7.6 0.0 0.1
14:02 10.7 4.8 67 1027.0 4.5 N 7.6 0.0 0.1
14:03 10.7 4.8 67 1027.1 4.5 N 7.6 0.0 0.1
14:04 10.7 4.8 67 1027.3 4.5 N 7.6 0.0 0.1
14:05 10.7 4.8 67 1027.3 5.4 N 7.6 0.0 0.1
14:06 10.6 4.7 67 1027.2 5.4 NE 7.6 0.0 0.1
14:07 10.6 4.9 68 1027.3 5.4 NW 7.6 0.0 0.1
14:08 10.6 4.9 68 1027.3 5.4 NW 6.0 0.0 0.1
14:09 10.6 4.9 68 1027.3 3.1 S 5.4 0.0 0.1
14:11 10.5 4.8 68 1027.4 6.0 NE 6.9 0.0 0.1
14:12 10.5 4.8 68 1027.4 3.1 N 6.9 0.0 0.1
14:13 10.5 4.8 68 1027.3 3.1 N 6.9 0.0 0.1
14:14 10.5 4.8 68 1027.2 3.8 N 6.9 0.0 0.1
14:15 10.5 4.8 68 1027.3 3.8 SW 6.9 0.0 0.1
14:16 10.5 4.8 68 1027.2 5.4 NW 6.9 0.0 0.1
14:17 10.4 5.0 69 1027.1 6.9 N 6.9 0.0 0.1
14:18 10.4 5.0 69 1027.3 4.5 NE 6.9 0.0 0.1
14:19 10.4 5.0 69 1027.4 4.5 NNW 6.9 0.0 0.1
14:20 10.4 5.0 69 1027.4 3.8 N 6.9 0.0 0.1
14:21 10.3 4.9 69 1027.3 4.5 N 6.9 0.0 0.1
14:22 10.3 4.9 69 1027.3 3.8 NW 6.9 0.0 0.1
14:23 10.3 4.9 69 1027.3 6.0 NE 6.9 0.0 0.1
14:24 10.3 4.9 69 1027.4 4.5 N 6.9 0.0 0.1
14:25 10.3 4.9 69 1027.2 6.9 W 6.9 0.0 0.1
14:26 10.2 4.8 69 1027.1 4.5 N 6.9 0.0 0.1
14:27 10.2 4.8 69 1027.3 6.9 SE 6.9 0.0 0.1
14:28 10.2 4.8 69 1027.1 3.1 SW 6.9 0.0 0.1
14:29 10.2 4.8 69 1027.1 3.1 NW 6.9 0.0 0.1
14:30 10.1 4.7 69 1027.2 4.5 NW 6.9 0.0 0.1
14:32 10.1 4.7 69 1027.2 6.0 NW 6.9 0.0 0.1
14:33 10.1 4.7 69 1027.2 6.0 N 6.9 0.0 0.1
14:34 10.1 4.7 69 1027.1 3.8 E 6.9 0.0 0.1
14:35 10.1 4.7 69 1027.4 2.2 N 6.9 0.0 0.1
14:36 10.1 4.7 69 1027.3 3.8 W 6.9 0.0 0.1
14:37 10.0 4.6 69 1027.3 3.8 SW 6.9 0.0 0.1
14:38 10.0 4.6 69 1027.3 3.8 NE 6.9 0.0 0.1
14:39 10.0 4.8 70 1027.4 3.8 SW 6.9 0.0 0.1
14:40 10.0 4.8 70 1027.2 3.8 SW 6.9 0.0 0.1
14:41 10.0 4.8 70 1027.2 3.8 NW 6.0 0.0 0.1
14:42 10.0 4.8 70 1027.5 3.8 NW 6.0 0.0 0.1
14:43 10.0 4.8 70 1027.2 6.0 NE 6.0 0.0 0.1
14:44 10.0 4.8 70 1027.3 3.1 N 6.0 0.0 0.1
14:45 10.0 4.8 70 1027.2 3.1 N 6.0 0.0 0.1
14:46 9.9 4.7 70 1027.4 5.4 N 6.0 0.0 0.1
14:47 9.9 4.7 70 1027.6 4.5 NE 6.0 0.0 0.1
14:49 9.9 4.7 70 1027.4 4.5 NW 6.0 0.0 0.1
14:50 9.9 4.7 70 1027.4 2.2 NW 6.0 0.0 0.1
14:51 9.9 4.7 70 1027.5 3.8 NE 6.0 0.0 0.1
14:52 9.9 4.7 70 1027.5 3.8 NE 6.0 0.0 0.1
14:53 9.9 4.7 70 1027.5 4.5 NW 5.4 0.0 0.1
14:54 9.9 4.7 70 1027.2 3.1 NE 5.4 0.0 0.1
14:55 9.8 4.6 70 1027.4 3.1 NE 5.4 0.0 0.1
14:56 9.8 4.6 70 1027.4 3.1 NE 5.4 0.0 0.1
14:57 9.8 4.6 70 1027.5 3.8 N 4.5 0.0 0.1
14:58 9.8 4.6 70 1027.4 3.8 N 4.5 0.0 0.1
14:59 9.8 4.6 70 1027.3 3.8 NE 4.5 0.0 0.1
15:00 9.8 4.6 70 1027.3 2.2 NW 4.5 0.0 0.1
15:01 9.8 4.6 70 1027.7 2.2 NW 4.5 0.0 0.1
15:02 9.8 4.6 70 1027.5 2.2 NW 4.5 0.0 0.1
15:03 9.8 4.6 70 1027.5 2.2 NW 4.5 0.0 0.1
15:05 9.8 4.6 70 1027.4 2.2 NW 3.8 0.0 0.1
15:06 9.8 4.6 70 1027.6 2.2 NW 3.8 0.0 0.1
15:07 9.8 4.6 70 1027.6 2.2 NW 3.8 0.0 0.1
15:08 9.8 4.6 70 1027.4 2.2 NW 3.8 0.0 0.1
15:09 9.7 4.5 70 1027.4 1.6 E 2.2 0.0 0.1
15:10 9.7 4.5 70 1027.3 1.6 SW 2.2 0.0 0.1
15:11 9.7 4.5 70 1027.3 5.4 NE 5.4 0.0 0.1
15:12 9.6 4.4 70 1027.3 3.8 N 5.4 0.0 0.1
15:13 9.6 4.4 70 1027.5 1.6 NE 5.4 0.0 0.1
15:14 9.6 4.4 70 1027.4 2.2 NE 5.4 0.0 0.1
15:15 9.6 4.4 70 1027.2 0.7 NW 5.4 0.0 0.1
15:16 9.6 4.4 70 1027.3 1.6 NW 5.4 0.0 0.1
15:17 9.6 4.4 70 1027.2 3.1 NW 5.4 0.0 0.1
15:18 9.6 4.4 70 1027.2 2.2 N 5.4 0.0 0.1
15:19 9.6 4.4 70 1027.0 0.7 SW 5.4 0.0 0.1
15:20 9.6 4.4 70 1027.3 2.2 W 5.4 0.0 0.1
15:21 9.5 4.3 70 1026.9 2.2 W 5.4 0.0 0.1
15:22 9.5 4.3 70 1027.2 3.1 N 3.8 0.0 0.1
15:23 9.5 4.3 70 1027.2 3.1 NW 3.1 0.0 0.1
15:24 9.5 4.3 70 1027.1 3.1 N 3.1 0.0 0.1
15:25 9.5 4.3 70 1027.1 1.6 NNE 3.1 0.0 0.1
15:26 9.5 4.3 70 1027.2 2.2 N 3.1 0.0 0.1
15:28 9.4 4.2 70 1027.1 0.7 NW 3.1 0.0 0.1
15:29 9.4 4.2 70 1027.1 0.7 NW 3.1 0.0 0.1
15:30 9.4 4.2 70 1027.1 3.1 W 3.1 0.0 0.1
15:31 9.4 4.2 70 1027.1 2.2 NW 3.1 0.0 0.1
15:32 9.4 4.2 70 1027.2 4.5 NE 4.5 0.0 0.1
15:33 9.4 4.2 70 1027.1 3.1 N 4.5 0.0 0.1
15:34 9.4 4.2 70 1027.3 3.1 N 4.5 0.0 0.1
15:35 9.4 4.2 70 1027.1 3.1 NW 4.5 0.0 0.1
15:36 9.4 4.2 70 1027.1 3.1 WNW 4.5 0.0 0.1
15:37 9.3 4.1 70 1027.4 3.8 N 4.5 0.0 0.1
15:38 9.3 4.1 70 1027.3 3.1 N 4.5 0.0 0.1
15:39 9.3 4.1 70 1027.2 4.5 NNW 4.5 0.0 0.1
15:40 9.3 4.1 70 1027.2 3.8 NW 4.5 0.0 0.1
15:41 9.3 4.1 70 1027.3 3.1 N 4.5 0.0 0.1
15:43 9.2 4.0 70 1027.3 2.2 N 4.5 0.0 0.1
15:44 9.2 4.0 70 1027.1 3.1 NW 4.5 0.0 0.1
15:45 9.2 4.0 70 1027.1 1.6 NW 4.5 0.0 0.1
15:46 9.2 4.0 70 1027.0 1.6 N 4.5 0.0 0.1
15:47 9.1 3.9 70 1027.1 3.8 N 4.5 0.0 0.1
15:48 9.1 4.1 71 1027.1 1.6 NW 4.5 0.0 0.1
15:49 9.1 4.1 71 1027.2 2.2 NW 4.5 0.0 0.1
15:50 9.1 4.1 71 1027.1 1.6 N 4.5 0.0 0.1
15:51 9.1 4.1 71 1027.0 2.2 N 4.5 0.0 0.1
15:52 9.1 4.1 71 1027.1 3.1 N 4.5 0.0 0.1
15:53 9.0 4.0 71 1027.2 2.2 NE 3.8 0.0 0.1
15:54 9.0 4.0 71 1027.3 4.5 N 4.5 0.0 0.1
15:55 9.0 4.0 71 1027.1 4.5 N 4.5 0.0 0.1
15:56 9.0 4.0 71 1027.2 4.5 NE 4.5 0.0 0.1
15:58 9.0 4.0 71 1027.2 1.6 NE 4.5 0.0 0.1
15:59 9.0 4.0 71 1027.1 4.5 N 4.5 0.0 0.1
16:00 9.0 4.0 71 1027.1 4.5 N 4.5 0.0 0.1
16:01 8.9 3.9 71 1027.5 4.5 NE 5.4 0.0 0.1
16:02 8.9 3.9 71 1027.2 4.5 N 5.4 0.0 0.1
16:03 8.9 3.9 71 1027.4 3.8 N 5.4 0.0 0.1
16:04 8.9 3.9 71 1027.2 2.2 N 5.4 0.0 0.1
16:05 8.8 3.8 71 1027.4 1.6 NE 5.4 0.0 0.1
16:06 8.8 3.8 71 1027.3 5.4 SW 5.4 0.0 0.1
16:07 8.8 3.8 71 1027.3 1.6 E 5.4 0.0 0.1
16:08 8.8 3.8 71 1027.1 2.2 NE 5.4 0.0 0.1
16:09 8.8 3.8 71 1027.2 1.6 N 5.4 0.0 0.1
16:10 8.8 3.8 71 1027.1 2.2 N 5.4 0.0 0.1
16:11 8.8 3.8 71 1027.2 1.6 NE 5.4 0.0 0.1
16:13 8.8 3.8 71 1027.3 1.6 NE 5.4 0.0 0.1
16:14 8.7 3.7 71 1027.2 3.1 NW 5.4 0.0 0.1
16:15 8.7 3.7 71 1027.2 3.1 NW 5.4 0.0 0.1
16:16 8.7 3.7 71 1027.1 1.6 E 5.4 0.0 0.1
16:17 8.7 3.7 71 1027.0 3.8 N 3.8 0.0 0.1
16:18 8.7 3.7 71 1027.1 3.1 NE 3.8 0.0 0.1
16:19 8.7 3.7 71 1027.2 3.1 N 3.8 0.0 0.1
16:20 8.7 3.7 71 1027.3 3.1 NE 3.8 0.0 0.1
16:21 8.7 3.7 71 1027.2 2.2 W 3.8 0.0 0.1
16:22 8.7 3.7 71 1027.2 2.2 NE 3.8 0.0 0.1
16:23 8.6 3.6 71 1027.3 3.8 N 3.8 0.0 0.1
16:24 8.6 3.6 71 1027.0 3.1 W 3.8 0.0 0.1
16:25 8.6 3.6 71 1027.0 3.1 W 3.8 0.0 0.1
16:27 8.6 3.6 71 1027.1 5.4 NW 5.4 0.0 0.1
16:28 8.6 3.6 71 1026.8 2.2 W 5.4 0.0 0.1
16:29 8.6 3.6 71 1027.3 1.6 NW 5.4 0.0 0.1
16:30 8.5 3.5 71 1027.0 3.1 E 5.4 0.0 0.1
16:31 8.5 3.5 71 1027.1 3.1 NNE 5.4 0.0 0.1
16:32 8.5 3.5 71 1027.2 3.1 NE 5.4 0.0 0.1
16:33 8.5 3.5 71 1027.1 3.1 NW 5.4 0.0 0.1
16:34 8.5 3.5 71 1027.2 3.1 NW 5.4 0.0 0.1
16:35 8.5 3.5 71 1027.1 3.1 NW 5.4 0.0 0.1
16:36 8.5 3.5 71 1027.2 2.2 NE 5.4 0.0 0.1
16:37 8.5 3.5 71 1027.3 2.2 N 5.4 0.0 0.1
16:38 8.4 3.4 71 1027.3 2.2 N 3.1 0.0 0.1
16:39 8.4 3.4 71 1027.0 2.2 N 3.1 0.0 0.1
16:40 8.4 3.4 71 1027.2 2.2 N 3.1 0.0 0.1
16:41 8.4 3.4 71 1027.1 3.8 NE 3.8 0.0 0.1
16:42 8.4 3.4 71 1027.0 2.2 NNE 3.8 0.0 0.1
16:44 8.3 3.4 71 1027.3 2.2 W 3.8 0.0 0.1
16:45 8.3 3.4 71 1027.2 1.6 N 3.8 0.0 0.1
16:46 8.3 3.4 71 1027.2 2.2 NW 3.8 0.0 0.1
16:47 8.3 3.4 71 1027.2 2.2 NW 3.8 0.0 0.1
16:48 8.3 3.4 71 1027.4 2.2 W 3.8 0.0 0.1
16:49 8.3 3.4 71 1027.3 2.2 WNW 3.8 0.0 0.1
16:50 8.3 3.6 72 1027.4 1.6 N 3.8 0.0 0.1
16:51 8.3 3.6 72 1027.1 3.1 W 3.8 0.0 0.1
16:52 8.3 3.6 72 1027.1 3.1 W 3.8 0.0 0.1
16:53 8.2 3.5 72 1027.1 3.8 NW 3.8 0.0 0.1
16:54 8.2 3.5 72 1027.0 3.8 NW 3.8 0.0 0.1
16:55 8.2 3.5 72 1027.2 3.8 NW 3.8 0.0 0.1
16:56 8.2 3.5 72 1027.0 2.2 N 3.8 0.0 0.1
16:57 8.2 3.5 72 1027.3 1.6 NE 3.8 0.0 0.1
16:58 8.2 3.5 72 1027.2 2.2 W 3.8 0.0 0.1
16:59 8.2 3.5 72 1027.2 1.6 N 3.8 0.0 0.1
17:00 8.2 3.5 72 1027.1 1.6 N 3.8 0.0 0.1
17:01 8.2 3.5 72 1027.2 1.6 N 3.8 0.0 0.1
17:03 8.2 3.5 72 1027.1 1.6 N 3.8 0.0 0.1
17:04 8.2 3.5 72 1027.0 1.6 N 3.8 0.0 0.1
17:05 8.2 3.5 72 1027.2 1.6 N 3.8 0.0 0.1
17:06 8.2 3.5 72 1027.0 1.6 N 2.2 0.0 0.1
17:07 8.2 3.5 72 1026.9 1.6 N 2.2 0.0 0.1
17:08 8.1 3.4 72 1027.2 0.7 N 2.2 0.0 0.1
17:09 8.1 3.4 72 1027.0 0.7 NW 2.2 0.0 0.1
17:10 8.1 3.4 72 1027.3 0.7 N 1.6 0.0 0.1
17:11 8.1 3.4 72 1027.2 0.7 N 1.6 0.0 0.1
17:12 8.1 3.4 72 1027.2 0.7 NW 1.6 0.0 0.1
17:13 8.1 3.4 72 1027.1 0.7 NW 1.6 0.0 0.1
17:14 8.1 3.4 72 1027.3 1.6 NW 1.6 0.0 0.1
17:15 8.1 3.4 72 1027.2 0.7 W 1.6 0.0 0.1
17:16 8.1 3.4 72 1027.1 0.7 W 1.6 0.0 0.1
17:17 8.1 3.4 72 1027.2 2.2 N 2.2 0.0 0.1
17:18 8.1 3.4 72 1027.1 2.2 N 2.2 0.0 0.1
17:19 8.1 3.6 73 1027.0 1.6 N 2.2 0.0 0.1
17:20 8.1 3.6 73 1027.1 1.6 N 2.2 0.0 0.1
17:21 8.0 3.5 73 1027.0 0.7 NW 2.2 0.0 0.1
17:22 8.0 3.5 73 1026.9 1.6 N 2.2 0.0 0.1
17:23 8.0 3.5 73 1027.1 0.7 NW 2.2 0.0 0.1
17:24 8.0 3.5 73 1027.0 0.7 N 2.2 0.0 0.1
17:25 8.0 3.5 73 1027.1 0.7 N 2.2 0.0 0.1
17:26 8.0 3.5 73 1027.1 0.7 N 2.2 0.0 0.1
17:28 8.0 3.5 73 1027.1 0.7 W 1.6 0.0 0.1
17:29 8.0 3.5 73 1026.9 0.7 N 1.6 0.0 0.1
17:30 8.0 3.5 73 1027.2 0.0 NW 1.6 0.0 0.1
17:31 8.0 3.5 73 1027.2 0.0 NW 1.6 0.0 0.1
17:32 8.0 3.5 73 1027.2 0.7 NW 1.6 0.0 0.1
17:33 8.0 3.5 73 1027.2 0.7 N 0.7 0.0 0.1
17:34 8.0 3.5 73 1027.2 1.6 N 1.6 0.0 0.1
17:35 8.0 3.5 73 1027.1 1.6 N 1.6 0.0 0.1
17:36 8.0 3.5 73 1027.1 0.7 NW 1.6 0.0 0.1
17:37 8.0 3.5 73 1027.0 0.7 W 1.6 0.0 0.1
17:38 8.0 3.5 73 1027.0 0.7 NW 1.6 0.0 0.1
17:39 8.0 3.5 73 1027.0 0.0 WNW 1.6 0.0 0.1
17:40 8.0 3.5 73 1027.1 0.0 WNW 1.6 0.0 0.1
17:41 8.0 3.7 74 1027.0 0.7 NE 1.6 0.0 0.1
17:42 8.0 3.7 74 1027.0 1.6 N 1.6 0.0 0.1
17:43 8.0 3.7 74 1027.2 0.7 NW 1.6 0.0 0.1
17:44 8.0 3.7 74 1027.0 0.7 NW 1.6 0.0 0.1
17:45 8.0 3.7 74 1027.0 0.7 NW 1.6 0.0 0.1
17:47 8.0 3.7 74 1027.3 0.7 W 1.6 0.0 0.1
17:48 8.0 3.7 74 1027.1 2.2 W 2.2 0.0 0.1
17:49 8.0 3.7 74 1027.0 2.2 W 2.2 0.0 0.1
17:50 8.0 3.7 74 1026.6 0.7 NW 2.2 0.0 0.1
17:51 8.0 3.7 74 1026.9 0.0 NW 2.2 0.0 0.1
17:52 8.0 3.7 74 1027.1 0.0 NW 2.2 0.0 0.1
17:53 8.0 3.7 74 1026.9 0.7 NW 2.2 0.0 0.1
17:54 8.0 3.7 74 1026.9 0.7 NW 2.2 0.0 0.1
17:55 8.0 3.7 74 1026.8 0.7 N 2.2 0.0 0.1
17:56 8.0 3.7 74 1027.0 0.7 NW 2.2 0.0 0.1
17:57 8.0 3.7 74 1026.9 0.7 NW 2.2 0.0 0.1
17:58 8.0 3.7 74 1027.1 0.7 NW 2.2 0.0 0.1
17:59 8.0 3.7 74 1026.9 0.7 NW 2.2 0.0 0.1
18:00 8.0 3.7 74 1026.7 0.7 NW 0.7 0.0 0.1
18:01 8.0 3.7 74 1026.9 0.7 W 0.7 0.0 0.1
18:02 7.9 3.6 74 1026.7 0.7 N 0.7 0.0 0.1
18:03 7.9 3.6 74 1026.9 0.7 N 0.7 0.0 0.1
18:04 7.9 3.6 74 1026.9 0.7 N 0.7 0.0 0.1
18:05 7.9 3.6 74 1027.0 0.7 NW 0.7 0.0 0.1
18:06 7.9 3.6 74 1026.9 0.7 W 0.7 0.0 0.1
18:09 7.9 3.6 74 1026.9 0.7 NW 0.7 0.0 0.1
18:10 7.9 3.6 74 1026.9 0.7 NW 0.7 0.0 0.1
18:11 7.9 3.6 74 1026.8 0.7 NW 0.7 0.0 0.1
18:12 7.9 3.6 74 1026.9 0.0 W 0.7 0.0 0.1
18:13 7.9 3.6 74 1026.8 0.0 W 0.7 0.0 0.1
18:14 7.9 3.6 74 1026.8 0.7 NW 0.7 0.0 0.1
18:15 7.9 3.6 74 1026.8 0.7 NW 0.7 0.0 0.1
18:16 7.9 3.6 74 1026.8 0.7 NW 0.7 0.0 0.1
18:17 7.9 3.6 74 1027.0 0.7 NW 0.7 0.0 0.1
18:18 7.9 3.6 74 1026.8 0.7 NW 0.7 0.0 0.1
18:19 7.9 3.6 74 1026.9 0.7 NW 0.7 0.0 0.1
18:20 7.9 3.6 74 1026.8 1.6 NW 1.6 0.0 0.1
18:21 7.9 3.6 74 1026.8 0.0 W 1.6 0.0 0.1
18:22 7.9 3.6 74 1026.8 0.0 W 1.6 0.0 0.1
18:23 7.9 3.6 74 1026.9 0.7 W 1.6 0.0 0.1
18:24 7.9 3.6 74 1026.9 0.0 W 1.6 0.0 0.1
18:25 7.9 3.6 74 1026.9 0.7 W 1.6 0.0 0.1
18:26 7.8 3.5 74 1027.0 0.0 W 1.6 0.0 0.1
18:27 7.8 3.5 74 1026.7 0.7 W 1.6 0.0 0.1
18:28 7.8 3.5 74 1026.7 0.7 W 1.6 0.0 0.1
18:29 7.8 3.5 74 1026.9 0.7 W 1.6 0.0 0.1
18:30 7.8 3.5 74 1026.6 0.7 W 1.6 0.0 0.1
18:31 7.8 3.6 75 1026.8 0.0 W 0.7 0.0 0.1
18:32 7.8 3.6 75 1026.6 0.0 W 0.7 0.0 0.1
18:33 7.8 3.6 75 1026.8 0.7 W 0.7 0.0 0.1
18:34 7.8 3.6 75 1026.8 0.0 W 0.7 0.0 0.1
18:35 7.8 3.6 75 1026.6 0.0 W 0.7 0.0 0.1
18:36 7.8 3.6 75 1026.8 0.0 W 0.7 0.0 0.1
18:37 7.8 3.6 75 1026.7 0.0 W 0.7 0.0 0.1
18:38 7.8 3.6 75 1026.5 0.0 W 0.7 0.0 0.1
18:39 7.8 3.6 75 1026.7 0.7 NW 0.7 0.0 0.1
18:40 7.8 3.6 75 1026.8 0.7 NW 0.7 0.0 0.1
18:41 7.8 3.6 75 1026.6 0.7 N 0.7 0.0 0.1
18:42 7.8 3.6 75 1026.8 0.7 N 0.7 0.0 0.1
18:43 7.8 3.6 75 1026.7 0.7 NE 0.7 0.0 0.1
18:44 7.8 3.6 75 1026.6 0.7 NE 0.7 0.0 0.1
18:46 7.8 3.6 75 1026.7 0.7 NW 0.7 0.0 0.1
18:47 7.8 3.6 75 1026.7 0.7 N 0.7 0.0 0.1
18:48 7.8 3.6 75 1026.6 1.6 N 1.6 0.0 0.1
18:49 7.8 3.6 75 1026.8 0.7 N 1.6 0.0 0.1
18:50 7.8 3.6 75 1026.8 0.7 N 1.6 0.0 0.1
18:51 7.8 3.6 75 1026.6 2.2 NW 2.2 0.0 0.1
18:52 7.8 3.6 75 1026.7 2.2 NW 2.2 0.0 0.1
18:53 7.8 3.6 75 1026.7 1.6 N 2.2 0.0 0.1
18:54 7.8 3.6 75 1026.7 1.6 NW 2.2 0.0 0.1
18:55 7.8 3.6 75 1026.9 2.2 W 2.2 0.0 0.1
18:56 7.8 3.6 75 1026.8 1.6 NE 2.2 0.0 0.1
18:57 7.8 3.6 75 1026.7 1.6 N 2.2 0.0 0.1
18:58 7.8 3.6 75 1026.6 2.2 N 2.2 0.0 0.1
18:59 7.8 3.6 75 1026.7 1.6 NW 2.2 0.0 0.1
19:00 7.8 3.6 75 1026.6 2.2 N 2.2 0.0 0.1
19:01 7.8 3.6 75 1026.6 2.2 N 2.2 0.0 0.1
19:02 7.8 3.6 75 1026.7 2.2 N 2.2 0.0 0.1
19:03 7.8 3.6 75 1026.8 2.2 N 2.2 0.0 0.1
19:04 7.8 3.6 75 1027.0 2.2 N 2.2 0.0 0.1
19:05 7.8 3.6 75 1026.8 2.2 N 2.2 0.0 0.1
19:07 7.9 3.9 76 1026.8 1.6 NW 2.2 0.0 0.1
19:08 7.9 3.9 76 1026.9 1.6 W 2.2 0.0 0.1
19:09 7.9 3.9 76 1026.8 0.7 N 2.2 0.0 0.1
19:10 7.9 3.9 76 1026.7 2.2 NW 2.2 0.0 0.1
19:11 7.9 3.9 76 1026.7 2.2 NW 2.2 0.0 0.1
19:12 7.9 3.9 76 1026.7 3.8 NW 3.8 0.0 0.1
19:13 7.9 3.9 76 1026.8 1.6 N 3.8 0.0 0.1
19:14 7.9 3.9 76 1026.7 1.6 N 3.8 0.0 0.1
19:15 8.0 4.0 76 1026.7 0.7 NW 3.8 0.0 0.1
19:16 8.0 4.0 76 1026.8 3.8 N 3.8 0.0 0.1
19:17 8.0 4.0 76 1026.9 3.8 N 3.8 0.0 0.1
19:18 8.0 4.0 76 1026.7 1.6 N 3.8 0.0 0.1
19:19 8.0 4.0 76 1026.9 2.2 N 3.8 0.0 0.1
19:20 8.0 4.0 76 1026.9 2.2 N 3.8 0.0 0.1
19:21 8.1 4.1 76 1026.8 1.6 N 3.8 0.0 0.1
19:22 8.1 4.1 76 1026.8 1.6 N 3.8 0.0 0.1
19:23 8.1 4.1 76 1026.7 1.6 N 3.8 0.0 0.1
19:24 8.1 4.3 77 1027.0 3.8 W 3.8 0.0 0.1
19:25 8.1 4.3 77 1026.8 3.1 NW 3.8 0.0 0.1
19:26 8.1 4.3 77 1026.8 2.2 NE 3.8 0.0 0.1
19:27 8.1 4.3 77 1026.7 3.8 W 3.8 0.0 0.1
19:28 8.1 4.3 77 1026.8 3.1 NE 3.8 0.0 0.1
19:29 8.2 4.4 77 1026.7 1.6 W 3.8 0.0 0.1
19:30 8.2 4.4 77 1026.9 2.2 N 3.8 0.0 0.1
19:31 8.2 4.4 77 1026.8 2.2 SW 3.8 0.0 0.1
19:32 8.2 4.4 77 1026.7 2.2 SW 3.8 0.0 0.1
19:33 8.2 4.4 77 1026.8 1.6 NW 3.8 0.0 0.1
19:34 8.2 4.4 77 1026.7 2.2 NNW 3.8 0.0 0.1
19:36 8.2 4.4 77 1026.4 2.2 N 3.8 0.0 0.1
19:37 8.2 4.4 77 1026.5 2.2 NW 3.1 0.0 0.1
19:38 8.2 4.4 77 1026.7 3.8 WNW 3.8 0.0 0.1
19:39 8.2 4.4 77 1026.5 2.2 NE 3.8 0.0 0.1
19:40 8.2 4.4 77 1026.7 3.8 N 3.8 0.0 0.1
19:41 8.2 4.4 77 1026.5 1.6 NW 3.8 0.0 0.1
19:42 8.2 4.4 77 1026.7 1.6 NW 3.8 0.0 0.1
19:43 8.2 4.4 77 1026.7 2.2 NW 3.8 0.0 0.1
19:44 8.2 4.4 77 1026.6 3.1 N 3.8 0.0 0.1
19:45 8.2 4.4 77 1026.8 3.1 NW 3.8 0.0 0.1
19:46 8.2 4.4 77 1026.7 3.1 NW 3.8 0.0 0.1
19:47 8.2 4.4 77 1026.6 3.1 N 3.8 0.0 0.1
19:48 8.2 4.4 77 1026.5 2.2 NW 3.8 0.0 0.1
19:49 8.2 4.4 77 1026.8 2.2 NW 3.8 0.0 0.1
19:50 8.2 4.4 77 1026.8 2.2 NW 3.1 0.0 0.1
19:52 8.2 4.4 77 1026.7 1.6 N 3.1 0.0 0.1
19:53 8.2 4.4 77 1026.8 2.2 NW 3.1 0.0 0.1
19:54 8.2 4.4 77 1026.7 2.2 N 3.1 0.0 0.1
19:55 8.2 4.4 77 1026.7 2.2 NW 3.1 0.0 0.1
19:56 8.2 4.4 77 1026.7 1.6 NW 3.1 0.0 0.1
19:57 8.2 4.4 77 1026.7 2.2 N 3.1 0.0 0.1
19:58 8.2 4.4 77 1026.7 1.6 E 2.2 0.0 0.1
19:59 8.2 4.4 77 1026.7 1.6 E 2.2 0.0 0.1
20:00 8.2 4.2 76 1026.7 3.1 N 3.1 0.0 0.1
20:01 8.1 4.1 76 1026.6 2.2 NE 3.1 0.0 0.1
20:02 8.1 4.1 76 1026.7 1.6 N 3.1 0.0 0.1
20:03 8.1 4.1 76 1026.6 2.2 W 3.1 0.0 0.1
20:04 8.1 4.1 76 1026.6 2.2 W 3.1 0.0 0.1
20:05 8.1 4.1 76 1026.6 1.6 N 3.1 0.0 0.1
20:06 8.1 4.1 76 1026.7 1.6 W 3.1 0.0 0.1
20:08 8.1 4.1 76 1026.5 1.6 N 3.1 0.0 0.1
20:09 8.0 4.0 76 1026.7 1.6 NW 3.1 0.0 0.1
20:10 8.0 4.0 76 1026.6 1.6 NW 3.1 0.0 0.1
20:11 8.0 4.0 76 1026.5 0.7 N 2.2 0.0 0.1
20:12 8.0 4.0 76 1026.5 0.7 N 2.2 0.0 0.1
20:13 8.0 4.0 76 1026.7 0.7 N 2.2 0.0 0.1
20:14 8.0 4.0 76 1026.6 0.7 N 2.2 0.0 0.1
20:15 8.0 4.0 76 1026.7 0.7 N 1.6 0.0 0.1
20:16 7.9 3.9 76 1026.7 0.7 NW 1.6 0.0 0.1
20:17 7.9 3.9 76 1026.6 0.7 W 1.6 0.0 0.1
20:18 7.9 3.9 76 1026.7 0.7 W 1.6 0.0 0.1
20:19 7.9 3.9 76 1026.5 0.7 W 1.6 0.0 0.1
20:20 7.8 3.8 76 1026.7 0.7 W 1.6 0.0 0.1
20:22 7.8 3.8 76 1026.5 0.7 N 1.6 0.0 0.1
20:23 7.8 3.8 76 1026.7 0.7 N 1.6 0.0 0.1
20:24 7.8 3.8 76 1026.8 2.2 NE 2.2 0.0 0.1
20:25 7.8 3.8 76 1026.7 2.2 NE 2.2 0.0 0.1
20:26 7.7 3.7 76 1026.6 0.7 N 2.2 0.0 0.1
20:27 7.7 3.7 76 1026.7 1.6 NE 2.2 0.0 0.1
20:28 7.7 3.7 76 1026.8 1.6 NE 2.2 0.0 0.1
20:29 7.7 3.7 76 1026.7 0.7 NW 2.2 0.0 0.1
20:30 7.7 3.7 76 1026.6 0.7 NW 2.2 0.0 0.1
20:31 7.7 3.7 76 1026.7 1.6 NW 2.2 0.0 0.1
20:32 7.6 3.6 76 1026.8 1.6 N 2.2 0.0 0.1
20:33 7.6 3.6 76 1026.8 0.7 NW 2.2 0.0 0.1
20:34 7.6 3.6 76 1026.8 1.6 NW 2.2 0.0 0.1
20:35 7.6 3.6 76 1026.6 0.7 W 1.6 0.0 0.1
20:37 7.5 3.5 76 1026.7 0.7 NW 1.6 0.0 0.1
20:38 7.5 3.5 76 1026.6 1.6 N 1.6 0.0 0.1
20:39 7.5 3.5 76 1026.6 1.6 N 1.6 0.0 0.1
20:40 7.5 3.5 76 1026.7 0.7 NW 1.6 0.0 0.1
20:41 7.5 3.5 76 1026.6 2.2 W 2.2 0.0 0.1
20:42 7.4 4.4 81 1026.7 2.2 NW 2.2 0.0 0.1
20:43 7.4 4.4 81 1026.5 0.7 N 2.2 0.0 0.1
20:44 7.4 4.4 81 1026.5 1.6 NW 2.2 0.0 0.1
20:45 7.4 4.4 81 1026.3 1.6 W 2.2 0.0 0.1
20:46 7.4 4.4 81 1026.5 0.0 N 2.2 0.0 0.1
20:47 7.4 4.4 81 1026.5 0.7 N 2.2 0.0 0.1
20:48 7.4 4.4 81 1026.5 1.6 NW 2.2 0.0 0.1
20:49 7.4 4.4 81 1026.6 1.6 NW 2.2 0.0 0.1
20:51 7.4 4.4 81 1026.1 2.2 W 2.2 0.0 0.1
20:52 7.4 4.4 81 1026.3 1.6 NW 2.2 0.0 0.1
20:53 7.4 4.5 82 1026.5 0.7 N 2.2 0.0 0.1
20:54 7.4 4.5 82 1026.5 0.7 SW 2.2 0.0 0.1
20:55 7.4 4.5 82 1026.6 3.1 NW 3.1 0.0 0.1
20:56 7.4 4.5 82 1026.5 3.1 N 3.1 0.0 0.1
20:57 7.4 4.5 82 1026.6 4.5 N 4.5 0.0 0.1
20:58 7.4 4.5 82 1026.7 3.1 N 4.5 0.0 0.1
20:59 7.4 4.5 82 1026.4 3.8 NE 4.5 0.0 0.1
21:00 7.4 4.5 82 1026.5 3.1 N 4.5 0.0 0.1
21:01 7.4 4.5 82 1026.6 3.1 N 4.5 0.0 0.1
21:02 7.4 4.5 82 1026.5 3.1 N 4.5 0.0 0.1
21:03 7.4 4.5 82 1026.7 3.1 N 4.5 0.0 0.1
21:05 7.4 4.5 82 1026.7 3.1 N 4.5 0.0 0.1
21:06 7.5 3.5 76 1026.6 4.5 NW 4.5 0.0 0.1
21:07 7.5 3.5 76 1026.5 3.1 NW 4.5 0.0 0.1
21:08 7.5 3.5 76 1026.5 3.1 NW 4.5 0.0 0.1
21:09 7.6 3.8 77 1026.5 3.8 N 4.5 0.0 0.1
21:10 7.6 3.8 77 1026.4 3.8 NE 4.5 0.0 0.1
21:11 7.6 3.8 77 1026.7 2.2 W 4.5 0.0 0.1
21:12 7.6 3.8 77 1026.4 1.6 NW 4.5 0.0 0.1
21:13 7.6 3.8 77 1026.4 3.8 W 4.5 0.0 0.1
21:14 7.7 3.9 77 1026.4 3.1 N 4.5 0.0 0.1
21:15 7.7 3.9 77 1026.4 3.1 N 4.5 0.0 0.1
21:16 7.7 3.9 77 1026.4 3.1 N 4.5 0.0 0.1
21:17 7.7 3.9 77 1026.4 3.1 N 3.8 0.0 0.1
21:18 7.7 3.9 77 1026.4 2.2 NW 3.8 0.0 0.1
21:19 7.7 3.9 77 1026.6 3.1 SW 3.8 0.0 0.1
21:20 7.7 3.9 77 1026.6 2.2 NW 3.8 0.0 0.1
21:21 7.7 3.9 77 1026.5 3.1 W 3.8 0.0 0.1
21:22 7.7 3.9 77 1026.7 3.1 S 3.8 0.0 0.1
21:23 7.7 3.9 77 1026.5 3.1 NW 3.8 0.0 0.1
21:24 7.8 4.0 77 1026.6 3.1 N 3.1 0.0 0.1
21:25 7.8 4.0 77 1026.6 3.1 SW 3.1 0.0 0.1
21:26 7.8 4.0 77 1026.5 3.1 N 3.1 0.0 0.1
21:27 7.8 4.0 77 1026.5 3.1 N 3.1 0.0 0.1
21:29 7.8 4.0 77 1026.6 3.1 W 3.1 0.0 0.1
21:30 7.8 4.0 77 1026.5 1.6 NW 3.1 0.0 0.1
21:31 7.8 4.0 77 1026.5 1.6 NW 3.1 0.0 0.1
21:32 7.8 4.0 77 1026.5 3.1 E 3.1 0.0 0.1
21:33 7.8 4.0 77 1026.7 3.1 NW 3.1 0.0 0.1
21:34 7.8 4.0 77 1026.7 3.1 W 3.1 0.0 0.1
21:35 7.8 4.0 77 1026.5 3.1 E 3.1 0.0 0.1
21:36 7.8 4.0 77 1026.5 1.6 NW 3.1 0.0 0.1
21:37 7.8 4.0 77 1026.5 3.8 N 3.8 0.0 0.1
21:38 7.8 4.0 77 1026.5 3.8 W 3.8 0.0 0.1
21:39 7.8 4.0 77 1026.6 3.8 N 3.8 0.0 0.1
21:40 7.8 4.0 77 1026.5 3.1 NW 3.8 0.0 0.1
21:41 7.8 4.0 77 1026.4 4.5 W 4.5 0.0 0.1
21:43 7.8 4.0 77 1026.5 3.1 N 4.5 0.0 0.1
21:44 7.8 4.0 77 1026.7 3.1 W 4.5 0.0 0.1
21:45 7.8 4.0 77 1026.6 3.8 NW 4.5 0.0 0.1
21:46 7.8 4.0 77 1026.6 2.2 NW 4.5 0.0 0.1
21:47 7.8 4.0 77 1026.6 3.8 N 4.5 0.0 0.1
21:48 7.8 4.0 77 1026.4 3.8 N 4.5 0.0 0.1
21:49 7.8 4.0 77 1026.7 2.2 SW 4.5 0.0 0.1
21:50 7.8 4.0 77 1026.4 4.5 N 4.5 0.0 0.1
21:51 7.8 4.0 77 1026.5 7.6 NW 7.6 0.0 0.1
21:52 7.8 4.0 77 1026.5 3.8 N 7.6 0.0 0.1
21:53 7.8 4.0 77 1026.4 3.1 NE 7.6 0.0 0.1
21:54 7.8 4.0 77 1026.2 3.1 W 7.6 0.0 0.1
21:55 7.8 4.0 77 1026.5 3.1 N 7.6 0.0 0.1
21:57 7.8 4.0 77 1026.5 4.5 ESE 7.6 0.0 0.1
21:58 7.8 3.8 76 1026.3 3.8 NW 7.6 0.0 0.1
21:59 7.8 3.8 76 1026.3 3.8 NW 7.6 0.0 0.1
22:00 7.8 3.8 76 1026.5 3.8 N 7.6 0.0 0.1
22:01 7.8 3.8 76 1026.3 2.2 N 4.5 0.0 0.1
22:02 7.8 3.8 76 1026.6 3.1 W 4.5 0.0 0.1
22:03 7.8 3.8 76 1026.4 3.1 W 4.5 0.0 0.1
22:04 7.8 3.8 76 1026.3 2.2 NE 4.5 0.0 0.1
22:05 7.8 3.8 76 1026.5 1.6 NW 4.5 0.0 0.1
22:06 7.8 3.8 76 1026.5 2.2 N 4.5 0.0 0.1
22:07 7.8 3.8 76 1026.7 3.1 N 4.5 0.0 0.1
22:08 7.8 3.8 76 1026.6 3.8 W 3.8 0.0 0.1
22:09 7.8 3.8 76 1026.3 3.8 WNW 3.8 0.0 0.1
22:11 7.8 4.0 77 1026.4 2.2 N 3.8 0.0 0.1
22:12 7.9 4.1 77 1026.4 3.1 NW 3.8 0.0 0.1
22:13 7.9 4.1 77 1026.4 3.8 N 3.8 0.0 0.1
22:14 7.9 4.1 77 1026.4 3.1 W 3.8 0.0 0.1
22:15 7.9 4.1 77 1026.3 3.1 NW 3.8 0.0 0.1
22:16 7.9 4.1 77 1026.3 3.8 NE 3.8 0.0 0.1
22:17 7.9 4.1 77 1026.3 3.8 N 3.8 0.0 0.1
22:18 7.9 4.1 77 1026.4 4.5 N 4.5 0.0 0.1
22:19 7.9 4.1 77 1026.5 4.5 NW 4.5 0.0 0.1
22:20 8.0 4.2 77 1026.4 4.5 NW 4.5 0.0 0.1
22:21 8.0 4.2 77 1026.4 3.8 SW 4.5 0.0 0.1
22:22 8.0 4.2 77 1026.4 3.8 N 4.5 0.0 0.1
22:23 8.1 4.3 77 1026.4 3.8 NW 4.5 0.0 0.1
22:24 8.1 4.3 77 1026.4 4.5 NE 4.5 0.0 0.1
22:26 8.2 4.6 78 1026.5 3.8 NW 6.0 0.0 0.1
22:27 8.2 4.6 78 1026.5 3.8 NW 6.0 0.0 0.1
22:28 8.2 4.6 78 1026.5 6.0 N 6.0 0.0 0.1
22:29 8.2 4.6 78 1026.3 3.8 NE 6.0 0.0 0.1
22:30 8.3 4.7 78 1026.4 3.1 N 6.0 0.0 0.1
22:31 8.3 4.7 78 1026.3 3.1 E 6.0 0.0 0.1
22:32 8.3 4.7 78 1026.2 1.6 NE 6.0 0.0 0.1
22:33 8.3 4.7 78 1026.4 7.6 NW 7.6 0.0 0.1
22:34 8.4 4.8 78 1026.3 7.6 W 7.6 0.0 0.1
22:35 8.4 5.0 79 1026.1 5.4 W 7.6 0.0 0.1
22:36 8.4 5.0 79 1026.3 2.2 WNW 7.6 0.0 0.1
22:37 8.5 5.1 79 1026.1 3.8 W 7.6 0.0 0.1
22:39 8.5 5.1 79 1026.2 3.1 SSW 7.6 0.0 0.1
22:40 8.5 5.1 79 1026.2 3.8 S 7.6 0.0 0.1
22:41 8.5 5.1 79 1026.4 4.5 N 7.6 0.0 0.1
22:42 8.6 5.2 79 1026.1 4.5 N 7.6 0.0 0.1
22:43 8.6 5.2 79 1026.1 4.5 SE 7.6 0.0 0.1
22:44 8.6 5.2 79 1026.4 2.2 N 7.6 0.0 0.1
22:45 8.6 5.2 79 1026.2 3.8 SE 5.4 0.0 0.1
22:46 8.7 5.3 79 1026.2 2.2 N 4.5 0.0 0.1
22:47 8.7 5.3 79 1025.9 4.5 N 4.5 0.0 0.1
22:48 8.7 5.3 79 1026.1 6.9 N 6.9 0.0 0.1
22:49 8.7 5.4 80 1026.2 4.5 N 6.9 0.0 0.1
22:50 8.8 5.5 80 1026.1 6.9 NW 6.9 0.0 0.1
22:51 8.8 5.5 80 1025.9 6.9 NW 6.9 0.0 0.1
22:52 8.8 5.5 80 1026.0 3.8 N 6.9 0.0 0.1
22:55 8.8 5.5 80 1026.2 3.8 N 6.9 0.0 0.1
22:56 8.8 5.5 80 1026.2 4.5 NW 6.9 0.0 0.1
22:57 8.8 5.5 80 1026.3 4.5 NW 6.9 0.0 0.1
22:58 8.8 5.5 80 1026.1 3.8 N 6.9 0.0 0.1
22:59 8.9 5.6 80 1025.9 3.8 NE 6.9 0.0 0.1
23:00 8.9 5.6 80 1025.9 3.8 W 6.9 0.0 0.1
23:01 8.9 5.6 80 1026.2 3.8 W 6.9 0.0 0.1
23:02 8.9 5.6 80 1025.9 3.8 W 4.5 0.0 0.1
23:03 8.9 5.6 80 1025.9 3.8 W 4.5 0.0 0.1
23:04 8.9 5.6 80 1026.0 3.8 W 4.5 0.0 0.1
23:05 8.9 5.6 80 1025.9 3.8 W 4.5 0.0 0.1
23:06 8.9 5.6 80 1025.9 3.8 N 4.5 0.0 0.1
23:07 8.9 5.6 80 1026.1 2.2 NW 3.8 0.0 0.1
23:08 8.9 5.6 80 1026.0 4.5 NW 4.5 0.0 0.1
23:10 8.9 5.6 80 1026.0 3.1 N 4.5 0.0 0.1
23:11 8.9 5.6 80 1026.1 6.0 NE 6.0 0.0 0.1
23:12 8.9 5.6 80 1025.9 6.0 N 6.0 0.0 0.1
23:13 8.9 5.6 80 1025.9 2.2 NNE 6.0 0.0 0.1
23:14 8.8 5.5 80 1026.1 4.5 NW 6.0 0.0 0.1
23:15 8.8 5.5 80 1026.0 3.8 N 6.0 0.0 0.1
23:16 8.8 5.5 80 1026.2 3.8 NW 6.0 0.0 0.1
23:17 8.8 5.5 80 1026.0 3.1 NE 6.0 0.0 0.1
23:18 8.8 5.5 80 1026.1 3.8 N 6.0 0.0 0.1
23:19 8.8 5.5 80 1025.9 3.8 N 6.0 0.0 0.1
23:21 8.7 5.4 80 1026.0 1.6 NW 6.0 0.0 0.1
23:22 8.7 5.4 80 1026.0 1.6 SW 6.0 0.0 0.1
23:23 8.7 5.4 80 1026.0 2.2 N 4.5 0.0 0.1
23:24 8.7 5.4 80 1026.0 2.2 N 4.5 0.0 0.1
23:25 8.6 5.3 80 1025.9 2.2 SW 3.8 0.0 0.1
23:26 8.6 5.3 80 1025.9 1.6 W 3.8 0.0 0.1
23:27 8.6 5.2 79 1026.2 2.2 N 3.8 0.0 0.1
23:28 8.6 5.2 79 1026.2 2.2 N 3.8 0.0 0.1
23:29 8.6 5.2 79 1026.0 3.1 W 3.8 0.0 0.1
23:30 8.6 5.2 79 1025.9 2.2 N 3.8 0.0 0.1
23:31 8.6 5.2 79 1026.2 2.2 N 3.1 0.0 0.1
23:32 8.5 5.1 79 1026.0 3.1 N 3.1 0.0 0.1
23:33 8.5 5.1 79 1026.0 3.1 NW 3.1 0.0 0.1
23:34 8.5 5.1 79 1026.2 3.1 SW 3.1 0.0 0.1
23:35 8.5 5.2 80 1026.0 2.2 NW 3.1 0.0 0.1
23:37 8.5 5.2 80 1025.9 3.8 N 3.8 0.0 0.1
23:38 8.5 5.2 80 1025.9 3.8 N 3.8 0.0 0.1
23:39 8.5 5.2 80 1025.9 3.8 N 3.8 0.0 0.1
23:40 8.6 5.3 80 1025.8 5.4 N 5.4 0.0 0.1
23:41 8.6 5.3 80 1025.9 3.8 N 5.4 0.0 0.1
23:42 8.6 5.3 80 1026.0 3.8 NW 5.4 0.0 0.1
23:43 8.6 5.3 80 1025.8 2.2 N 5.4 0.0 0.1
23:44 8.6 5.3 80 1025.9 3.1 NW 5.4 0.0 0.1
23:45 8.6 5.3 80 1025.9 4.5 N 6.0 0.0 0.1
23:46 8.6 5.3 80 1025.8 3.1 N 6.0 0.0 0.1
23:47 8.6 5.3 80 1025.8 4.5 W 6.0 0.0 0.1
23:48 8.7 5.4 80 1026.0 3.8 NW 6.0 0.0 0.1
23:49 8.7 5.4 80 1025.8 3.8 SW 6.0 0.0 0.1
23:50 8.7 5.4 80 1025.9 2.2 NW 6.0 0.0 0.1
23:51 8.7 5.4 80 1025.9 4.5 NNE 6.0 0.0 0.1
23:53 8.7 5.4 80 1025.8 2.2 E 6.0 0.0 0.1
23:54 8.7 5.4 80 1025.9 4.5 N 6.0 0.0 0.1
23:55 8.7 5.4 80 1025.9 4.5 N 4.5 0.0 0.1
23:56 8.7 5.4 80 1025.6 4.5 NW 4.5 0.0 0.1
23:57 8.7 5.4 80 1025.7 3.8 N 4.5 0.0 0.1
23:58 8.7 5.4 80 1025.7 3.8 NE 4.5 0.0 0.1
23:59 8.7 5.4 80 1025.7 2.2 NE 4.5 0.0 0.1

 

 

UK - WEATHER STATION TOPSITES - UK World Weather Websites

Copyright © Carnkie Weather 2009 - 2021.